OK1OBR-13 Weather Reports


Display with metric or nautical units.
time (UTC)temp
F
wind
direction
speed
MPH
gust
MPH
rain 1hr
in
rain 24hr
in
rain mn
in
humidity
%
barometer
mb
20260905191400 59 320 0.0 1.0 0.00 0.00 0.14 63 943.3
20260905191300 59 316 0.0 1.0 0.00 0.00 0.14 63 943.3
20260905191201 59 323 0.0 1.0 0.00 0.00 0.14 63 943.2
20260905191101 59 305 1.0 1.0 0.00 0.00 0.14 63 943.2
20260905191001 59 320 0.0 1.0 0.00 0.00 0.14 63 943.3
20260905190901 59 318 0.0 0.0 0.00 0.00 0.14 63 943.2
20260905190800 59 318 0.0 0.0 0.00 0.00 0.14 63 943.1
20260905190700 59 317 0.0 1.0 0.00 0.00 0.14 63 943.2
20260905190600 59 316 0.0 1.0 0.00 0.00 0.14 63 943.2
20260905190500 59 323 0.0 1.0 0.00 0.00 0.14 62 943.2
20260905190400 59 318 0.0 0.0 0.00 0.00 0.14 62 942.8
20260905190300 59 318 0.0 0.0 0.00 0.00 0.14 62 943.2
20260905190200 59 318 0.0 0.0 0.00 0.00 0.14 62 943.1
20260905190100 59 318 0.0 1.0 0.00 0.00 0.14 62 943.0
20260905190001 59 318 0.0 1.0 0.00 0.00 0.14 62 943.2
20260905185900 59 316 0.0 0.0 0.00 0.00 0.14 62 943.1
20260905185801 59 328 0.0 1.0 0.00 0.00 0.14 62 943.2
20260905185700 59 317 0.0 1.0 0.00 0.00 0.14 62 943.3
20260905185600 59 343 0.0 1.0 0.00 0.00 0.14 62 943.0
20260905185500 59 337 0.0 1.0 0.00 0.00 0.14 62 943.0
20260905185401 59 310 0.0 1.0 0.00 0.00 0.14 62 943.1
20260905185300 59 312 0.0 1.0 0.00 0.00 0.14 62 943.0
20260905185200 59 319 0.0 1.0 0.00 0.00 0.14 62 943.1
20260905185100 59 346 0.0 2.0 0.00 0.00 0.14 62 943.1
20260905185000 59 339 2.0 2.0 0.00 0.00 0.14 62 943.0
20260905184900 59 359 1.0 2.0 0.00 0.00 0.14 62 943.1
20260905184800 59 345 1.0 2.0 0.00 0.00 0.14 62 943.1
20260905184700 59 345 1.0 2.0 0.00 0.00 0.14 61 943.0
20260905184600 59 298 1.0 2.0 0.00 0.00 0.14 61 943.0
20260905184500 59 300 2.0 2.0 0.00 0.00 0.14 61 943.0
20260905184400 59 324 2.0 2.0 0.00 0.00 0.14 61 942.9
20260905184300 59 308 1.0 2.0 0.00 0.00 0.14 62 943.0
20260905184200 59 26 1.0 2.0 0.00 0.00 0.14 61 943.0
20260905184100 59 26 1.0 2.0 0.00 0.00 0.14 61 943.0
20260905184000 59 335 2.0 2.0 0.00 0.00 0.14 61 942.8
20260905183900 59 327 2.0 2.0 0.00 0.00 0.14 61 942.9
20260905183800 60 326 1.0 2.0 0.00 0.00 0.14 61 942.9
20260905183700 60 343 1.0 2.0 0.00 0.00 0.14 61 942.8
20260905183601 60 320 2.0 2.0 0.00 0.00 0.14 61 942.8
20260905183500 60 336 2.0 2.0 0.00 0.00 0.14 61 943.1
20260905183401 60 341 2.0 3.0 0.00 0.00 0.14 61 943.0
20260905183300 60 329 2.0 3.0 0.00 0.00 0.14 61 942.7
20260905183200 60 332 2.0 2.0 0.00 0.00 0.14 61 942.9
20260905183100 60 337 2.0 2.0 0.00 0.00 0.14 61 942.8
20260905183000 60 324 2.0 2.0 0.00 0.00 0.14 61 942.7
20260905182900 60 324 2.0 3.0 0.00 0.00 0.14 61 942.7
20260905182800 60 322 2.0 2.0 0.00 0.00 0.14 61 942.8
20260905182700 60 326 2.0 2.0 0.00 0.00 0.14 61 942.7
20260905182600 60 345 2.0 2.0 0.00 0.00 0.14 61 942.9
20260905182500 60 333 2.0 3.0 0.00 0.00 0.14 61 942.9
20260905182401 60 314 2.0 3.0 0.00 0.00 0.14 61 942.7
20260905182300 60 304 2.0 2.0 0.00 0.00 0.14 61 942.5
20260905182201 60 316 2.0 3.0 0.00 0.00 0.14 61 942.7
20260905182101 60 353 2.0 3.0 0.00 0.00 0.14 61 942.9
20260905182001 60 338 2.0 3.0 0.00 0.00 0.14 61 942.9
20260905181900 60 327 1.0 3.0 0.00 0.00 0.14 61 942.9
20260905181800 60 340 2.0 3.0 0.00 0.00 0.14 61 942.7
20260905181700 60 334 2.0 3.0 0.00 0.00 0.14 61 942.9
20260905181600 60 350 2.0 3.0 0.00 0.00 0.14 61 942.8
20260905181500 60 349 2.0 3.0 0.00 0.00 0.14 61 942.7
20260905181400 60 348 2.0 3.0 0.00 0.00 0.14 61 942.6
20260905181300 60 293 2.0 3.0 0.00 0.00 0.14 61 942.6
20260905181200 60 338 1.0 3.0 0.00 0.00 0.14 61 942.7
20260905181101 60 332 2.0 3.0 0.00 0.00 0.14 61 942.6
20260905181000 60 19 2.0 3.0 0.00 0.00 0.14 61 942.7
20260905180901 60 0 2.0 3.0 0.00 0.00 0.14 61 942.8
20260905180800 60 350 2.0 3.0 0.00 0.00 0.14 60 942.5
20260905180701 60 326 2.0 3.0 0.00 0.00 0.14 60 942.6
20260905180600 60 339 2.0 3.0 0.00 0.00 0.14 60 942.7
20260905180501 60 307 2.0 3.0 0.00 0.00 0.14 60 942.3
20260905180400 60 324 1.0 3.0 0.00 0.00 0.14 60 942.5
20260905180300 60 310 2.0 3.0 0.00 0.00 0.14 60 942.7
20260905180200 60 308 2.0 3.0 0.00 0.00 0.14 60 942.4
20260905180100 60 327 2.0 3.0 0.00 0.00 0.14 61 942.5
20260905180000 60 344 1.0 3.0 0.00 0.00 0.14 61 942.4
20260905175901 60 350 2.0 2.0 0.00 0.00 0.14 61 942.4
20260905175801 60 331 1.0 2.0 0.00 0.00 0.14 61 942.4
20260905175701 60 316 1.0 3.0 0.00 0.00 0.14 61 942.4
20260905175600 60 348 2.0 3.0 0.00 0.00 0.14 61 942.3
20260905175501 60 117 1.0 3.0 0.00 0.00 0.14 61 942.4
20260905175400 60 286 2.0 3.0 0.00 0.00 0.14 60 942.4
20260905175300 60 325 2.0 3.0 0.00 0.00 0.14 60 942.2
20260905175200 60 327 2.0 3.0 0.00 0.00 0.14 60 942.2
20260905175101 60 263 1.0 3.0 0.00 0.00 0.14 61 942.4
20260905175001 60 42 1.0 3.0 0.00 0.00 0.14 60 942.3
20260905174900 60 358 2.0 3.0 0.00 0.00 0.14 60 942.3
20260905174801 60 319 1.0 2.0 0.00 0.00 0.14 61 942.4
20260905174700 60 333 2.0 3.0 0.00 0.00 0.14 60 942.0
20260905174600 60 339 2.0 3.0 0.00 0.00 0.14 60 942.2
20260905174500 60 220 1.0 3.0 0.00 0.00 0.14 60 942.1
20260905174400 60 233 1.0 3.0 0.00 0.00 0.14 61 942.2
20260905174300 60 333 3.0 3.0 0.00 0.00 0.14 60 942.2
20260905174200 60 356 1.0 3.0 0.00 0.00 0.14 61 942.2
20260905174100 60 299 1.0 3.0 0.00 0.00 0.14 61 942.3
20260905174000 60 299 1.0 3.0 0.00 0.00 0.14 61 942.3
20260905173900 60 318 1.0 3.0 0.00 0.00 0.14 61 942.2
20260905173800 60 323 2.0 3.0 0.00 0.00 0.14 61 942.0
20260905173700 60 344 2.0 2.0 0.00 0.00 0.14 62 942.1
20260905173600 60 312 2.0 3.0 0.00 0.00 0.14 61 942.2
20260905173500 60 324 2.0 3.0 0.00 0.00 0.14 61 942.2
20260905173400 60 343 1.0 3.0 0.00 0.00 0.14 61 942.1
20260905173300 60 340 2.0 3.0 0.00 0.00 0.14 61 942.2
20260905173200 60 321 2.0 2.0 0.00 0.00 0.14 61 942.0
20260905173100 60 326 2.0 2.0 0.00 0.00 0.14 62 942.2
20260905173000 60 320 1.0 3.0 0.00 0.00 0.14 61 942.2
20260905172900 60 326 2.0 3.0 0.00 0.00 0.14 61 942.2
20260905172800 60 332 2.0 3.0 0.00 0.00 0.14 61 942.1
20260905172700 60 353 1.0 2.0 0.00 0.00 0.14 61 942.2
20260905172601 60 337 1.0 2.0 0.00 0.00 0.14 61 942.1
20260905172502 60 301 2.0 3.0 0.00 0.00 0.14 61 942.1
20260905172402 60 352 2.0 3.0 0.00 0.00 0.14 61 942.1
20260905172305 61 335 2.0 3.0 0.00 0.00 0.14 61 942.0
20260905172202 61 318 2.0 3.0 0.00 0.00 0.14 61 942.0
20260905172102 61 331 2.0 3.0 0.00 0.00 0.14 61 942.1
20260905172002 61 280 2.0 4.0 0.00 0.00 0.14 60 942.1
20260905171901 61 319 3.0 3.0 0.00 0.00 0.14 60 942.1
20260905171800 61 304 2.0 3.0 0.00 0.00 0.14 61 942.0
20260905171701 61 221 1.0 2.0 0.00 0.00 0.14 61 942.0
20260905171601 61 329 1.0 2.0 0.00 0.00 0.14 61 942.1
20260905171500 61 339 1.0 2.0 0.00 0.00 0.14 61 942.0
20260905171401 61 349 2.0 2.0 0.00 0.00 0.14 61 941.8
20260905171300 61 313 1.0 2.0 0.00 0.00 0.14 60 941.8
20260905171200 61 16 1.0 3.0 0.00 0.00 0.14 60 941.9
20260905171100 61 329 2.0 3.0 0.00 0.00 0.14 60 941.9
20260905171001 61 326 1.0 2.0 0.00 0.00 0.14 60 941.9
20260905170900 62 327 1.0 3.0 0.00 0.00 0.14 60 941.9
20260905170802 62 324 2.0 3.0 0.00 0.00 0.14 59 941.7
20260905170700 62 279 2.0 4.0 0.00 0.00 0.14 59 941.9
20260905170600 62 275 3.0 4.0 0.00 0.00 0.14 59 942.0
20260905170500 62 271 0.0 3.0 0.00 0.00 0.14 60 941.7
20260905170400 62 184 1.0 2.0 0.00 0.00 0.14 60 941.8
20260905170300 62 343 1.0 3.0 0.00 0.00 0.14 60 941.8
20260905170200 62 341 2.0 3.0 0.00 0.00 0.14 60 941.7
20260905170100 62 314 2.0 3.0 0.00 0.00 0.14 59 941.8
20260905170001 62 25 0.0 2.0 0.00 0.00 0.14 60 941.6
20260905165901 62 323 1.0 2.0 0.00 0.00 0.14 60 941.6
20260905165801 62 329 1.0 2.0 0.00 0.00 0.14 60 941.7
20260905165700 62 357 1.0 3.0 0.00 0.00 0.14 59 941.8
20260905165601 62 345 1.0 3.0 0.00 0.00 0.14 59 941.7
20260905165500 62 91 0.0 2.0 0.00 0.00 0.14 59 941.7
20260905165400 62 325 1.0 2.0 0.00 0.00 0.14 59 941.5
20260905165300 62 330 0.0 3.0 0.00 0.00 0.14 59 941.7
20260905165200 62 124 2.0 3.0 0.00 0.00 0.14 58 941.7
20260905165101 62 327 1.0 2.0 0.00 0.00 0.14 58 941.8
20260905165001 62 311 1.0 2.0 0.00 0.00 0.14 58 941.7
20260905164900 62 333 1.0 2.0 0.00 0.00 0.14 59 941.8
20260905164801 62 232 2.0 2.0 0.00 0.00 0.14 58 941.7
20260905164700 62 332 1.0 2.0 0.00 0.00 0.14 58 941.6
20260905164601 62 274 1.0 3.0 0.00 0.00 0.14 58 941.5
20260905164501 62 120 1.0 3.0 0.00 0.00 0.14 59 941.6
20260905164401 62 306 2.0 2.0 0.00 0.00 0.14 59 941.7
20260905164302 62 233 1.0 2.0 0.00 0.00 0.14 59 941.4
20260905164202 62 136 1.0 3.0 0.00 0.00 0.14 59 941.5
20260905164100 62 287 1.0 3.0 0.00 0.00 0.14 59 941.5
20260905164000 62 299 2.0 3.0 0.00 0.00 0.14 59 941.7
20260905163900 62 299 2.0 3.0 0.00 0.00 0.14 59 941.7
20260905163800 62 352 1.0 3.0 0.00 0.00 0.14 59 941.6
20260905163700 62 311 1.0 2.0 0.00 0.00 0.14 59 941.3
20260905163600 62 58 1.0 3.0 0.00 0.00 0.14 59 941.7
20260905163500 62 327 2.0 3.0 0.00 0.00 0.14 59 941.5
20260905163402 62 301 2.0 3.0 0.00 0.00 0.14 58 941.5
20260905163301 62 11 1.0 3.0 0.00 0.00 0.14 59 941.5
20260905163200 62 297 2.0 3.0 0.00 0.00 0.14 58 941.5
20260905163100 62 305 1.0 4.0 0.00 0.00 0.14 59 941.5
20260905163000 62 324 3.0 4.0 0.00 0.00 0.14 58 941.4
20260905162901 62 291 3.0 4.0 0.00 0.00 0.14 58 941.6
20260905162801 62 334 2.0 4.0 0.00 0.00 0.14 58 941.6
20260905162701 62 334 2.0 3.0 0.00 0.00 0.14 58 941.5
20260905162601 62 310 2.0 3.0 0.00 0.00 0.14 59 941.5
20260905162500 62 316 2.0 4.0 0.00 0.00 0.14 58 941.5
20260905162400 62 328 2.0 4.0 0.00 0.00 0.14 58 941.5
20260905162305 62 330 2.0 3.0 0.00 0.00 0.14 58 941.5
20260905162200 62 27 1.0 3.0 0.00 0.00 0.14 59 941.4
20260905162101 63 349 1.0 3.0 0.00 0.00 0.14 59 941.5
20260905162000 63 332 2.0 3.0 0.00 0.00 0.14 59 941.4
20260905161900 63 340 2.0 3.0 0.00 0.00 0.14 60 941.4
20260905161801 63 82 2.0 3.0 0.00 0.00 0.14 59 941.3
20260905161701 63 343 2.0 3.0 0.00 0.00 0.14 60 941.5
20260905161600 63 128 1.0 3.0 0.00 0.00 0.14 59 941.5
20260905161500 63 291 2.0 3.0 0.00 0.00 0.14 59 941.5
20260905161400 63 323 3.0 3.0 0.00 0.00 0.14 58 941.3
20260905161301 63 288 1.0 2.0 0.00 0.00 0.14 59 941.2
20260905161200 63 335 1.0 3.0 0.00 0.00 0.14 59 941.4
20260905161100 63 330 2.0 4.0 0.00 0.00 0.14 60 941.2
20260905161000 63 317 3.0 4.0 0.00 0.00 0.14 58 941.2
20260905160900 63 320 3.0 3.0 0.00 0.00 0.14 59 941.3
20260905160800 63 328 3.0 3.0 0.00 0.00 0.14 59 941.3
20260905160700 63 329 3.0 3.0 0.00 0.00 0.14 58 941.1
20260905160601 63 305 1.0 3.0 0.00 0.00 0.14 58 941.4
20260905160500 63 3 2.0 3.0 0.00 0.00 0.14 59 941.4
20260905160402 63 328 1.0 2.0 0.00 0.00 0.14 59 941.2
20260905160300 64 338 1.0 2.0 0.00 0.00 0.14 59 941.1
20260905160200 64 318 1.0 2.0 0.00 0.00 0.14 58 941.0
20260905160101 64 302 1.0 2.0 0.00 0.00 0.14 58 941.2
20260905160000 64 312 1.0 1.0 0.00 0.00 0.14 59 941.0
20260905155900 64 317 1.0 1.0 0.00 0.00 0.14 58 941.2
20260905155801 64 312 1.0 2.0 0.00 0.00 0.14 59 941.0
20260905155700 64 295 1.0 3.0 0.00 0.00 0.14 58 941.1
20260905155602 64 173 1.0 3.0 0.00 0.00 0.14 59 941.1
20260905155500 64 334 1.0 1.0 0.00 0.00 0.14 59 941.0
20260905155400 64 264 1.0 1.0 0.00 0.00 0.14 58 941.1
20260905155300 64 292 1.0 3.0 0.00 0.00 0.14 58 941.0
20260905155200 64 300 1.0 3.0 0.00 0.00 0.14 58 940.9
20260905155101 64 331 1.0 2.0 0.00 0.00 0.14 58 941.1
20260905155001 64 329 1.0 2.0 0.00 0.00 0.14 57 941.1
20260905154900 64 285 1.0 1.0 0.00 0.00 0.14 58 941.0
20260905154800 64 303 1.0 1.0 0.00 0.00 0.14 58 941.1
20260905154700 64 286 1.0 1.0 0.00 0.00 0.14 58 940.9
20260905154601 64 304 1.0 2.0 0.00 0.00 0.14 58 941.1
20260905154501 64 310 1.0 2.0 0.00 0.00 0.14 58 941.1
20260905154400 64 302 1.0 2.0 0.00 0.00 0.14 57 941.1
20260905154301 64 302 1.0 2.0 0.00 0.00 0.14 58 941.0
20260905154200 64 283 1.0 2.0 0.00 0.00 0.14 57 941.0
20260905154101 64 313 1.0 2.0 0.00 0.00 0.14 57 940.8
20260905154000 64 296 2.0 2.0 0.00 0.00 0.14 57 941.1
20260905153900 64 296 1.0 2.0 0.00 0.00 0.14 57 941.0
20260905153801 64 296 1.0 2.0 0.00 0.00 0.14 57 941.0
20260905153700 64 247 1.0 2.0 0.00 0.00 0.14 57 940.9
20260905153600 64 291 1.0 2.0 0.00 0.00 0.14 57 941.1
20260905153500 64 272 1.0 1.0 0.00 0.00 0.14 57 941.1
20260905153401 64 306 1.0 1.0 0.00 0.00 0.14 57 941.3
20260905153300 64 303 1.0 2.0 0.00 0.00 0.14 58 941.1
20260905153201 65 286 1.0 2.0 0.00 0.00 0.14 57 941.1
20260905153100 65 295 1.0 2.0 0.00 0.00 0.14 57 941.3
20260905153000 65 291 1.0 2.0 0.00 0.00 0.14 57 941.2
20260905152901 65 308 1.0 1.0 0.00 0.00 0.14 57 941.2
20260905152800 65 249 1.0 1.0 0.00 0.00 0.14 57 940.9
20260905152701 65 293 1.0 2.0 0.00 0.00 0.14 58 941.2
20260905152601 65 313 1.0 2.0 0.00 0.00 0.14 57 941.2
20260905152501 65 254 1.0 1.0 0.00 0.00 0.14 58 941.0
20260905152400 65 258 1.0 1.0 0.00 0.00 0.14 57 941.2
20260905152301 65 302 1.0 2.0 0.00 0.00 0.14 57 941.2
20260905152200 64 279 1.0 2.0 0.00 0.00 0.14 57 941.3
20260905152100 64 299 1.0 1.0 0.00 0.00 0.14 57 941.2
20260905152001 64 285 1.0 2.0 0.00 0.00 0.14 57 941.1
20260905151900 64 274 1.0 2.0 0.00 0.00 0.14 57 941.1
20260905151800 64 301 1.0 2.0 0.00 0.00 0.14 56 941.0
20260905151700 64 282 1.0 3.0 0.00 0.00 0.14 57 941.1
20260905151601 64 280 1.0 2.0 0.00 0.00 0.14 58 940.8
20260905151500 64 305 1.0 1.0 0.00 0.00 0.14 57 941.0
20260905151401 64 303 1.0 2.0 0.00 0.00 0.14 57 941.1
20260905151300 64 306 1.0 2.0 0.00 0.00 0.14 57 941.2
20260905151200 64 294 2.0 2.0 0.00 0.00 0.14 56 941.1
20260905151100 64 226 1.0 2.0 0.00 0.00 0.14 58 940.8
20260905151001 64 298 1.0 1.0 0.00 0.00 0.14 58 941.0
20260905150900 64 318 1.0 1.0 0.00 0.00 0.14 59 941.0
20260905150800 64 319 1.0 1.0 0.00 0.00 0.14 58 941.2
20260905150700 64 266 1.0 1.0 0.00 0.00 0.14 58 941.0
20260905150601 64 283 1.0 1.0 0.00 0.00 0.14 57 940.8
20260905150501 64 305 1.0 1.0 0.00 0.00 0.14 58 940.7
20260905150400 65 280 1.0 1.0 0.00 0.00 0.14 57 940.9
20260905150300 65 238 1.0 1.0 0.00 0.00 0.14 57 940.9
20260905150200 65 274 0.0 1.0 0.00 0.00 0.14 56 940.9
20260905150000 65 238 1.0 1.0 0.00 0.00 0.14 57 941.1
20260905145901 65 297 1.0 1.0 0.00 0.00 0.14 57 941.0
20260905145800 65 268 1.0 1.0 0.00 0.00 0.14 57 940.6
20260905145701 65 325 1.0 2.0 0.00 0.00 0.14 58 940.8
20260905145600 65 240 1.0 2.0 0.00 0.00 0.14 57 940.9
20260905145500 65 299 1.0 2.0 0.00 0.00 0.14 57 941.0
20260905145400 65 262 1.0 1.0 0.00 0.00 0.14 57 941.0
20260905145301 65 236 0.0 1.0 0.00 0.00 0.14 57 940.8
20260905145200 65 252 0.0 1.0 0.00 0.00 0.14 58 941.0
20260905145100 65 265 1.0 2.0 0.00 0.00 0.14 57 940.9
20260905145000 65 279 1.0 2.0 0.00 0.00 0.14 56 940.9
20260905144900 65 261 1.0 2.0 0.00 0.00 0.14 55 940.9
20260905144800 65 323 1.0 2.0 0.00 0.00 0.14 56 941.0
20260905144701 65 234 1.0 1.0 0.00 0.00 0.14 56 941.1
20260905144600 65 302 0.0 2.0 0.00 0.00 0.14 58 940.9
20260905144501 65 308 1.0 2.0 0.00 0.00 0.14 57 941.0
20260905144401 65 276 1.0 2.0 0.00 0.00 0.14 56 940.7
20260905144301 65 256 1.0 2.0 0.00 0.00 0.14 57 940.8
20260905144200 65 355 1.0 2.0 0.00 0.00 0.14 58 941.0
20260905144101 65 309 1.0 2.0 0.00 0.00 0.14 57 941.0
20260905144000 65 259 1.0 1.0 0.00 0.00 0.14 58 941.0
20260905143900 65 291 1.0 2.0 0.00 0.00 0.14 57 940.8
20260905143801 65 226 1.0 2.0 0.00 0.00 0.14 58 940.9
20260905143700 65 226 1.0 2.0 0.00 0.00 0.14 58 940.9
20260905143601 64 316 1.0 1.0 0.00 0.00 0.14 57 941.0
20260905143501 64 315 1.0 1.0 0.00 0.00 0.14 58 940.9
20260905143401 64 281 0.0 1.0 0.00 0.00 0.14 58 940.9
20260905143300 64 267 0.0 1.0 0.00 0.00 0.14 60 940.9
20260905143200 64 265 0.0 1.0 0.00 0.00 0.14 60 941.2
20260905143100 64 330 1.0 2.0 0.00 0.00 0.14 58 940.9
20260905143000 64 312 1.0 2.0 0.00 0.00 0.14 58 941.1
20260905142900 64 267 1.0 2.0 0.00 0.00 0.14 58 941.0
20260905142800 64 282 1.0 2.0 0.00 0.00 0.14 58 941.1
20260905142700 64 270 1.0 2.0 0.00 0.00 0.14 59 941.0
20260905142602 64 302 2.0 2.0 0.00 0.00 0.14 58 941.0
20260905142500 64 301 1.0 1.0 0.00 0.00 0.14 59 941.0
20260905142401 64 249 1.0 1.0 0.00 0.00 0.14 60 940.9
20260905142300 64 298 1.0 2.0 0.00 0.00 0.14 58 941.1
20260905142201 64 275 2.0 2.0 0.00 0.00 0.14 58 941.0
20260905142100 64 237 1.0 1.0 0.00 0.00 0.14 58 941.0
20260905142000 64 292 1.0 1.0 0.00 0.00 0.14 60 941.1
20260905141900 64 272 0.0 1.0 0.00 0.00 0.14 60 941.1
20260905141800 64 320 1.0 1.0 0.00 0.00 0.14 59 941.1
20260905141701 64 316 0.0 1.0 0.00 0.00 0.14 60 940.9
20260905141600 64 318 1.0 2.0 0.00 0.00 0.14 60 940.9
20260905141500 64 291 1.0 1.0 0.00 0.00 0.14 60 941.1
20260905141401 64 310 1.0 1.0 0.00 0.00 0.14 60 941.1
20260905141301 64 252 0.0 3.0 0.00 0.00 0.14 60 941.0
20260905141200 64 229 2.0 3.0 0.00 0.00 0.14 60 941.0
20260905141101 64 299 1.0 2.0 0.00 0.00 0.14 59 940.9
20260905141000 64 284 2.0 3.0 0.00 0.00 0.14 58 940.9
20260905140900 64 302 2.0 3.0 0.00 0.00 0.14 59 941.1
20260905140800 64 308 1.0 2.0 0.00 0.00 0.14 58 940.9
20260905140700 64 307 1.0 2.0 0.00 0.00 0.14 59 940.9
20260905140600 64 313 1.0 1.0 0.00 0.00 0.14 59 941.0
20260905140501 64 328 1.0 2.0 0.00 0.00 0.14 59 940.8
20260905140400 64 304 1.0 2.0 0.00 0.00 0.14 59 941.1
20260905140300 64 295 1.0 2.0 0.00 0.00 0.14 59 941.0
20260905140201 64 303 1.0 3.0 0.00 0.00 0.14 60 940.8
20260905140101 64 294 1.0 3.0 0.00 0.00 0.14 59 941.0
20260905140000 65 301 0.0 1.0 0.00 0.00 0.14 59 941.0
20260905135900 65 314 1.0 1.0 0.00 0.00 0.14 58 941.2
20260905135800 65 256 1.0 1.0 0.00 0.00 0.14 58 941.0
20260905135700 65 336 1.0 1.0 0.00 0.00 0.14 58 941.1
20260905135600 65 309 1.0 1.0 0.00 0.00 0.14 57 941.1
20260905135500 65 297 0.0 1.0 0.00 0.00 0.14 57 941.1
20260905135400 65 324 0.0 1.0 0.00 0.00 0.14 56 940.9
20260905135301 65 251 1.0 1.0 0.00 0.00 0.14 56 941.0
20260905135200 65 346 0.0 1.0 0.00 0.00 0.14 57 941.0
20260905135101 65 255 1.0 2.0 0.00 0.00 0.14 56 941.2
20260905135000 65 17 1.0 2.0 0.00 0.00 0.14 56 941.0
20260905134902 66 271 1.0 1.0 0.00 0.00 0.14 56 941.1
20260905134801 66 258 1.0 2.0 0.00 0.00 0.14 55 940.9
20260905134700 66 269 1.0 2.0 0.00 0.00 0.14 55 941.1
20260905134601 66 242 1.0 2.0 0.00 0.00 0.14 55 940.9
20260905134501 67 268 1.0 2.0 0.00 0.00 0.14 54 941.1
20260905134400 67 296 1.0 2.0 0.00 0.00 0.14 54 941.1
20260905134301 66 307 1.0 3.0 0.00 0.00 0.14 55 941.1
20260905134201 66 300 2.0 2.0 0.00 0.00 0.14 55 940.9
20260905134101 66 292 1.0 2.0 0.00 0.00 0.14 56 941.0
20260905134000 66 270 1.0 1.0 0.00 0.00 0.14 56 941.0
20260905133901 66 354 1.0 2.0 0.00 0.00 0.14 56 941.2
20260905133800 65 270 1.0 2.0 0.00 0.00 0.14 55 941.1
20260905133700 65 290 1.0 3.0 0.00 0.00 0.14 56 941.0
20260905133601 65 290 1.0 3.0 0.00 0.00 0.14 56 941.0
20260905133501 65 295 2.0 3.0 0.00 0.00 0.14 55 941.1
20260905133401 65 300 1.0 2.0 0.00 0.00 0.14 57 941.2
20260905133300 66 288 0.0 2.0 0.00 0.00 0.14 57 941.2
20260905133200 66 311 1.0 3.0 0.00 0.00 0.14 56 941.0
20260905133100 65 305 2.0 2.0 0.00 0.00 0.14 56 941.0
20260905133000 65 296 1.0 1.0 0.00 0.00 0.14 57 940.9
20260905132901 65 308 1.0 1.0 0.00 0.00 0.14 57 941.2
20260905132801 64 289 0.0 1.0 0.00 0.00 0.14 58 940.9
20260905132701 64 250 1.0 1.0 0.00 0.00 0.14 59 941.2
20260905132600 64 239 0.0 2.0 0.00 0.00 0.14 58 941.1
20260905132500 64 314 1.0 2.0 0.00 0.00 0.14 58 941.1
20260905132400 64 248 1.0 2.0 0.00 0.00 0.14 58 941.2
20260905132300 64 298 1.0 2.0 0.00 0.00 0.14 57 941.3
20260905132202 64 286 2.0 2.0 0.00 0.00 0.14 57 941.0
20260905132100 64 255 1.0 1.0 0.00 0.00 0.14 57 941.2
20260905132001 64 244 1.0 1.0 0.00 0.00 0.14 57 941.0
20260905131900 64 61 1.0 3.0 0.00 0.00 0.14 57 941.2
20260905131801 64 319 1.0 3.0 0.00 0.00 0.14 56 941.1
20260905131701 64 304 2.0 3.0 0.00 0.00 0.14 57 941.1
20260905131600 65 291 2.0 3.0 0.00 0.00 0.14 55 941.2
20260905131501 65 304 2.0 3.0 0.00 0.00 0.14 54 941.2
20260905131400 65 280 1.0 3.0 0.00 0.00 0.14 55 941.0
20260905131301 65 277 1.0 1.0 0.00 0.00 0.14 55 940.9
20260905131200 65 271 0.0 2.0 0.00 0.00 0.14 57 941.0
20260905131101 65 282 1.0 2.0 0.00 0.00 0.14 56 940.9
20260905131000 65 251 1.0 1.0 0.00 0.00 0.14 56 941.1
20260905130900 65 308 1.0 2.0 0.00 0.00 0.14 56 941.2
20260905130800 65 260 1.0 2.0 0.00 0.00 0.14 56 941.1
20260905130700 65 226 1.0 2.0 0.00 0.00 0.14 56 941.0
20260905130601 66 283 2.0 3.0 0.00 0.00 0.14 55 941.1
20260905130502 66 237 2.0 3.0 0.00 0.00 0.14 55 940.9
20260905130401 66 247 2.0 3.0 0.00 0.00 0.14 55 941.1
20260905130300 66 236 2.0 3.0 0.00 0.00 0.14 55 940.9
20260905130200 65 250 1.0 3.0 0.00 0.00 0.14 56 941.1
20260905130100 65 304 2.0 3.0 0.00 0.00 0.14 56 941.1
20260905130000 65 302 1.0 1.0 0.00 0.00 0.14 58 941.1
20260905125900 65 262 1.0 3.0 0.00 0.00 0.14 58 941.0
20260905125801 65 244 1.0 3.0 0.00 0.00 0.14 58 941.2
20260905125700 65 236 1.0 1.0 0.00 0.00 0.14 57 941.1
20260905125600 65 275 0.0 1.0 0.00 0.00 0.14 58 941.3
20260905125500 65 310 0.0 1.0 0.00 0.00 0.14 57 941.1
20260905125400 65 318 0.0 1.0 0.00 0.00 0.14 58 941.1
20260905125305 65 305 1.0 1.0 0.00 0.00 0.14 59 941.4
20260905125200 65 310 0.0 1.0 0.00 0.00 0.14 58 941.5
20260905125100 65 291 0.0 1.0 0.00 0.00 0.14 58 941.2
20260905125001 65 309 0.0 1.0 0.00 0.00 0.14 58 941.4
20260905124901 65 195 0.0 1.0 0.00 0.00 0.14 58 941.1
20260905124801 65 262 0.0 1.0 0.00 0.00 0.14 57 941.3
20260905124700 65 272 0.0 3.0 0.00 0.00 0.14 57 941.4
20260905124601 64 265 1.0 3.0 0.00 0.00 0.14 58 941.2
20260905124500 64 293 0.0 1.0 0.00 0.00 0.14 57 941.2
20260905124401 65 259 1.0 2.0 0.00 0.00 0.14 56 941.4
20260905124300 65 302 1.0 2.0 0.00 0.00 0.14 57 941.3
20260905124200 64 316 1.0 2.0 0.00 0.00 0.14 56 941.3
20260905124100 64 278 0.0 1.0 0.00 0.00 0.14 57 941.4
20260905124000 64 240 0.0 1.0 0.00 0.00 0.14 57 941.3
20260905123900 64 237 0.0 1.0 0.00 0.00 0.14 56 941.2
20260905123800 64 273 1.0 1.0 0.00 0.00 0.14 56 941.4
20260905123700 65 293 1.0 2.0 0.00 0.00 0.14 56 941.3
20260905123601 65 293 1.0 2.0 0.00 0.00 0.14 56 941.3
20260905123500 65 314 1.0 2.0 0.00 0.00 0.14 55 941.3
20260905123400 65 231 1.0 2.0 0.00 0.00 0.14 54 941.3
20260905123301 65 281 1.0 2.0 0.00 0.00 0.14 53 941.2
20260905123200 65 322 1.0 1.0 0.00 0.00 0.14 55 941.2
20260905123100 65 290 1.0 2.0 0.00 0.00 0.14 55 941.4
20260905123001 65 231 1.0 2.0 0.00 0.00 0.14 55 941.3
20260905122901 65 187 1.0 2.0 0.00 0.00 0.14 54 941.5
20260905122800 65 322 1.0 2.0 0.00 0.00 0.14 53 941.3
20260905122700 65 278 1.0 2.0 0.00 0.00 0.14 56 941.5
20260905122600 65 219 1.0 2.0 0.00 0.00 0.14 55 941.3
20260905122501 64 283 0.0 1.0 0.00 0.00 0.14 58 941.5
20260905122400 64 240 1.0 2.0 0.00 0.00 0.14 58 941.3
20260905122300 64 325 1.0 3.0 0.00 0.00 0.14 56 941.4
20260905122201 64 279 2.0 2.0 0.00 0.00 0.14 55 941.6
20260905122101 64 309 2.0 2.0 0.00 0.00 0.14 55 941.3
20260905122001 64 268 1.0 2.0 0.00 0.00 0.14 55 941.7
20260905121901 63 314 1.0 1.0 0.00 0.00 0.14 55 941.5
20260905121800 63 251 1.0 2.0 0.00 0.00 0.14 55 941.3
20260905121700 63 274 1.0 3.0 0.00 0.00 0.14 57 941.2
20260905121600 63 318 1.0 3.0 0.00 0.00 0.14 55 941.5
20260905121500 63 244 1.0 3.0 0.00 0.00 0.14 56 941.5
20260905121401 64 317 1.0 2.0 0.00 0.00 0.14 55 941.4
20260905121300 64 267 1.0 2.0 0.00 0.00 0.14 55 941.5
20260905121201 64 338 1.0 2.0 0.00 0.00 0.14 55 941.5
20260905121100 64 279 1.0 3.0 0.00 0.00 0.14 53 941.6
20260905121001 64 305 2.0 2.0 0.00 0.00 0.14 53 941.4
20260905120900 64 300 1.0 2.0 0.00 0.00 0.14 54 941.5
20260905120800 64 293 1.0 2.0 0.00 0.00 0.14 54 941.5
20260905120701 64 304 1.0 3.0 0.00 0.00 0.14 54 941.6
20260905120600 64 196 1.0 3.0 0.00 0.00 0.14 54 941.4
20260905120501 64 278 2.0 3.0 0.00 0.00 0.14 54 941.5
20260905120400 64 297 2.0 3.0 0.00 0.00 0.14 54 941.3
20260905120301 64 336 1.0 3.0 0.00 0.00 0.14 56 941.4
20260905120201 64 302 2.0 3.0 0.00 0.00 0.14 55 941.4
20260905120100 64 254 1.0 2.0 0.00 0.00 0.14 56 941.4
20260905120001 63 304 1.0 2.0 0.00 0.00 0.14 57 941.4
20260905115900 63 316 1.0 2.0 0.00 0.00 0.14 56 941.5
20260905115800 63 194 1.0 2.0 0.00 0.00 0.14 57 941.4
20260905115700 63 281 1.0 2.0 0.00 0.00 0.14 55 941.4
20260905115600 64 282 1.0 2.0 0.00 0.00 0.14 55 941.2
20260905115501 64 302 2.0 3.0 0.00 0.00 0.14 54 941.4
20260905115400 64 281 2.0 3.0 0.00 0.00 0.14 53 941.2
20260905115300 65 333 1.0 2.0 0.00 0.00 0.14 55 941.6
20260905115201 65 277 1.0 2.0 0.00 0.00 0.14 54 941.3
20260905115100 65 263 1.0 2.0 0.00 0.00 0.14 54 941.1
20260905115000 65 297 1.0 3.0 0.00 0.00 0.14 53 941.3
20260905114900 65 266 1.0 2.0 0.00 0.00 0.14 56 941.4
20260905114800 66 280 1.0 2.0 0.00 0.00 0.14 54 941.3
20260905114700 66 283 1.0 2.0 0.00 0.00 0.14 53 941.1
20260905114601 64 299 1.0 2.0 0.00 0.00 0.14 62 941.4
20260905114503 64 299 1.0 2.0 0.00 0.00 0.14 62 941.4
20260905114402 64 299 1.0 2.0 0.00 0.00 0.14 62 941.4
20260905114301 64 299 1.0 2.0 0.00 0.00 0.14 62 941.4
20260905114201 64 299 1.0 2.0 0.00 0.00 0.14 62 941.4
20260905114101 64 299 1.0 2.0 0.00 0.00 0.14 62 941.4
20260905114000 64 299 1.0 2.0 0.00 0.00 0.14 62 941.4
20260905113900 64 299 1.0 2.0 0.00 0.00 0.14 62 941.4
20260905113801 64 299 1.0 2.0 0.00 0.00 0.14 62 941.4
20260905113700 64 299 1.0 2.0 0.00 0.00 0.14 62 941.4
20260905113601 64 299 1.0 2.0 0.00 0.00 0.14 62 941.4
20260905113500 64 299 1.0 2.0 0.00 0.00 0.14 62 941.4
20260905113401 64 299 1.0 2.0 0.00 0.00 0.14 62 941.4
20260905113300 64 299 1.0 2.0 0.00 0.00 0.14 62 941.4
20260905113200 64 299 1.0 2.0 0.00 0.00 0.14 62 941.4
20260905113100 64 299 1.0 2.0 0.00 0.00 0.14 62 941.4
20260905113000 64 299 1.0 2.0 0.00 0.00 0.14 62 941.4
20260905112900 64 299 1.0 2.0 0.00 0.00 0.14 62 941.4
20260905112800 64 299 1.0 2.0 0.00 0.00 0.14 62 941.4
20260905112700 64 299 1.0 2.0 0.00 0.00 0.14 62 941.4
20260905112601 64 299 1.0 2.0 0.00 0.00 0.14 62 941.4
20260905112500 64 290 1.0 2.0 0.00 0.00 0.14 61 941.6
20260905112400 64 311 1.0 1.0 0.00 0.00 0.14 61 941.5
20260905112300 64 283 1.0 1.0 0.00 0.00 0.14 61 941.6
20260905112200 64 291 1.0 2.0 0.00 0.00 0.14 60 941.4
20260905112100 64 248 1.0 2.0 0.00 0.00 0.14 61 941.4
20260905112000 64 256 1.0 2.0 0.00 0.00 0.14 61 941.5
20260905111901 64 249 1.0 1.0 0.00 0.00 0.14 61 941.5
20260905111800 64 249 1.0 2.0 0.00 0.00 0.14 60 941.6
20260905111700 64 270 1.0 2.0 0.00 0.00 0.14 59 941.3
20260905111600 64 250 1.0 2.0 0.00 0.00 0.14 59 941.5
20260905111500 64 319 1.0 2.0 0.00 0.00 0.14 61 941.4
20260905111400 64 278 1.0 2.0 0.00 0.00 0.14 61 941.5
20260905111300 64 296 2.0 3.0 0.00 0.00 0.14 59 941.5
20260905111200 64 301 2.0 3.0 0.00 0.00 0.14 59 941.7
20260905111100 64 315 1.0 2.0 0.00 0.00 0.14 59 941.4
20260905111000 64 255 1.0 2.0 0.00 0.00 0.14 58 941.4
20260905110901 64 307 1.0 2.0 0.00 0.00 0.14 60 941.5
20260905110800 64 307 1.0 2.0 0.00 0.00 0.14 60 941.5
20260905110700 64 278 1.0 2.0 0.00 0.00 0.14 60 941.6
20260905110601 64 292 1.0 2.0 0.00 0.00 0.14 59 941.5
20260905110500 64 258 1.0 2.0 0.00 0.00 0.14 59 941.7
20260905110400 64 275 1.0 2.0 0.00 0.00 0.14 59 941.5
20260905110300 64 246 2.0 2.0 0.00 0.00 0.14 59 941.5
20260905110201 64 228 0.0 1.0 0.00 0.00 0.14 60 941.3
20260905110100 64 297 1.0 1.0 0.00 0.00 0.14 59 941.5
20260905110000 64 339 1.0 1.0 0.00 0.00 0.14 58 941.5
20260905105900 64 322 1.0 1.0 0.00 0.00 0.14 60 941.5
20260905105800 64 229 1.0 2.0 0.00 0.00 0.14 59 941.2
20260905105700 64 235 1.0 2.0 0.00 0.00 0.14 59 941.4
20260905105601 65 283 1.0 2.0 0.00 0.00 0.14 58 941.5
20260905105500 65 278 1.0 2.0 0.00 0.00 0.14 59 941.5
20260905105400 65 244 1.0 2.0 0.00 0.00 0.14 57 941.5
20260905105301 65 258 1.0 1.0 0.00 0.00 0.14 58 941.4
20260905105200 64 60 1.0 1.0 0.00 0.00 0.14 59 941.4
20260905105101 64 255 0.0 1.0 0.00 0.00 0.14 61 941.6
20260905105001 64 262 1.0 1.0 0.00 0.00 0.14 59 941.6
20260905104900 64 286 1.0 1.0 0.00 0.00 0.14 60 941.5
20260905104800 63 266 1.0 1.0 0.00 0.00 0.14 60 941.3
20260905104701 63 231 0.0 1.0 0.00 0.00 0.14 60 941.2
20260905104601 63 245 0.0 2.0 0.00 0.00 0.14 60 941.3
20260905104501 63 271 1.0 2.0 0.00 0.00 0.14 61 941.4
20260905104400 62 239 1.0 2.0 0.00 0.00 0.14 61 941.4
20260905104300 62 317 1.0 2.0 0.00 0.00 0.14 62 941.2
20260905104200 62 232 1.0 2.0 0.00 0.00 0.14 62 941.4
20260905104100 62 314 1.0 2.0 0.00 0.00 0.14 63 941.7
20260905104001 62 292 1.0 2.0 0.00 0.00 0.14 63 941.5
20260905103900 62 308 1.0 2.0 0.00 0.00 0.14 61 941.4
20260905103801 63 302 1.0 2.0 0.00 0.00 0.14 61 941.2
20260905103701 63 300 2.0 2.0 0.00 0.00 0.14 61 941.4
20260905103600 64 309 1.0 3.0 0.00 0.00 0.14 61 941.6
20260905103500 64 291 2.0 2.0 0.00 0.00 0.14 59 941.5
20260905103400 65 294 1.0 2.0 0.00 0.00 0.14 59 941.4
20260905103301 65 278 1.0 2.0 0.00 0.00 0.14 58 941.2
20260905103200 64 68 1.0 1.0 0.00 0.00 0.14 61 941.6
20260905103101 64 248 1.0 1.0 0.00 0.00 0.14 63 941.3
20260905103000 64 296 0.0 1.0 0.00 0.00 0.14 61 941.3
20260905102901 64 255 1.0 1.0 0.00 0.00 0.14 61 941.4
20260905102800 63 359 0.0 1.0 0.00 0.00 0.14 62 941.5
20260905102700 63 231 1.0 1.0 0.00 0.00 0.14 64 941.6
20260905102600 63 303 1.0 1.0 0.00 0.00 0.14 65 941.4
20260905102500 63 294 0.0 1.0 0.00 0.00 0.14 65 941.6
20260905102400 62 309 1.0 1.0 0.00 0.00 0.14 65 941.4
20260905102301 62 289 0.0 1.0 0.00 0.00 0.14 67 941.5
20260905102200 62 282 0.0 1.0 0.00 0.00 0.14 69 941.4
20260905102100 62 293 1.0 3.0 0.00 0.00 0.14 68 941.5
20260905102000 62 310 1.0 3.0 0.00 0.00 0.14 67 941.5
20260905101901 62 304 1.0 3.0 0.00 0.00 0.14 69 941.2
20260905101800 61 279 1.0 2.0 0.00 0.00 0.14 69 941.5
20260905101700 61 220 1.0 1.0 0.00 0.00 0.14 71 941.3
20260905101601 61 300 0.0 2.0 0.00 0.00 0.14 71 941.3
20260905101500 61 294 1.0 3.0 0.00 0.00 0.14 70 941.4
20260905101400 61 273 2.0 3.0 0.00 0.00 0.14 69 941.5
20260905101300 61 318 0.0 1.0 0.00 0.00 0.14 71 941.4
20260905101201 61 292 1.0 1.0 0.00 0.00 0.14 72 941.3
20260905101101 61 271 1.0 1.0 0.00 0.00 0.14 71 941.3
20260905101000 61 303 1.0 1.0 0.00 0.00 0.14 71 941.4
20260905100901 61 239 0.0 1.0 0.00 0.00 0.14 71 941.5
20260905100801 61 290 1.0 1.0 0.00 0.00 0.14 70 941.4
20260905100701 61 290 1.0 1.0 0.00 0.00 0.14 70 941.4
20260905100600 61 328 1.0 1.0 0.00 0.00 0.14 71 941.4
20260905100500 62 296 1.0 1.0 0.00 0.00 0.14 71 941.4
20260905100401 62 235 1.0 2.0 0.00 0.00 0.14 70 941.2
20260905100301 62 294 1.0 2.0 0.00 0.00 0.14 70 941.4
20260905100200 63 234 1.0 2.0 0.00 0.00 0.14 68 941.3
20260905100101 63 270 1.0 2.0 0.00 0.00 0.14 68 941.4
20260905100000 63 307 1.0 1.0 0.00 0.00 0.14 69 941.1
20260905095900 64 296 1.0 1.0 0.00 0.00 0.14 68 941.3
20260905095800 64 296 1.0 1.0 0.00 0.00 0.14 67 941.3
20260905095700 64 272 1.0 1.0 0.00 0.00 0.14 69 941.3
20260905095601 63 232 1.0 1.0 0.00 0.00 0.14 70 941.5
20260905095500 63 206 0.0 1.0 0.00 0.00 0.14 68 941.5
20260905095400 63 1 0.0 1.0 0.00 0.00 0.14 70 941.3
20260905095300 63 262 1.0 1.0 0.00 0.00 0.14 69 941.3
20260905095201 62 307 1.0 1.0 0.00 0.00 0.14 72 941.3
20260905095100 62 178 1.0 1.0 0.00 0.00 0.14 73 941.4
20260905095000 61 318 1.0 2.0 0.00 0.00 0.14 75 941.0
20260905094900 61 286 1.0 2.0 0.00 0.00 0.14 72 941.3
20260905094800 61 260 1.0 2.0 0.00 0.00 0.14 73 941.3
20260905094700 61 244 1.0 2.0 0.00 0.00 0.14 73 941.3
20260905094600 61 273 1.0 1.0 0.00 0.00 0.14 74 941.2
20260905094500 61 288 1.0 1.0 0.00 0.00 0.14 73 941.4
20260905094400 61 228 1.0 1.0 0.00 0.00 0.14 75 941.4
20260905094305 61 311 1.0 1.0 0.00 0.00 0.14 73 941.3
20260905094200 60 301 1.0 1.0 0.00 0.00 0.14 74 941.2
20260905094100 60 318 1.0 1.0 0.00 0.00 0.14 76 941.4
20260905094000 60 224 0.0 1.0 0.00 0.00 0.14 76 941.5
20260905093901 60 311 0.0 1.0 0.00 0.00 0.14 75 941.3
20260905093800 60 279 1.0 1.0 0.00 0.00 0.14 76 941.4
20260905093700 60 283 1.0 1.0 0.00 0.00 0.14 75 941.2
20260905093601 60 270 1.0 2.0 0.00 0.00 0.14 75 941.4
20260905093500 60 286 1.0 1.0 0.00 0.00 0.14 75 941.5
20260905093400 60 312 1.0 1.0 0.00 0.00 0.14 78 941.4
20260905093300 60 302 0.0 1.0 0.00 0.00 0.14 79 941.4
20260905093201 60 231 0.0 1.0 0.00 0.00 0.14 78 941.4
20260905093100 60 314 0.0 1.0 0.00 0.00 0.14 78 941.5
20260905093001 60 233 1.0 1.0 0.00 0.00 0.14 78 941.5
20260905092901 60 283 0.0 1.0 0.00 0.00 0.14 78 941.4
20260905092801 60 263 0.0 1.0 0.00 0.00 0.14 78 941.5
20260905092700 60 270 1.0 1.0 0.00 0.00 0.14 77 941.4
20260905092600 60 254 1.0 1.0 0.00 0.00 0.14 78 941.4
20260905092500 60 304 0.0 1.0 0.00 0.00 0.14 78 941.6
20260905092400 59 312 0.0 1.0 0.00 0.00 0.14 79 941.3
20260905092300 59 330 0.0 1.0 0.00 0.00 0.14 79 941.6
20260905092200 59 218 1.0 1.0 0.00 0.00 0.14 81 941.5
20260905092101 58 316 0.0 1.0 0.00 0.00 0.14 81 941.3
20260905092000 58 228 1.0 1.0 0.00 0.00 0.14 81 941.4
20260905091900 59 322 1.0 1.0 0.00 0.00 0.14 80 941.4
20260905091800 59 322 1.0 1.0 0.00 0.00 0.14 80 941.4
20260905091700 59 227 1.0 1.0 0.00 0.00 0.14 80 941.5
20260905091600 59 287 0.0 1.0 0.00 0.00 0.14 81 941.3
20260905091501 59 330 0.0 1.0 0.00 0.00 0.14 81 941.5
20260905091401 59 302 0.0 1.0 0.00 0.00 0.14 81 941.3
20260905091300 58 309 1.0 1.0 0.00 0.00 0.14 82 941.5
20260905091200 58 283 0.0 0.0 0.00 0.00 0.14 82 941.5
20260905091101 58 296 0.0 1.0 0.00 0.00 0.14 82 941.4
20260905091000 58 308 0.0 1.0 0.00 0.00 0.14 82 941.6
20260905090900 58 289 0.0 1.0 0.00 0.00 0.14 82 941.4
20260905090801 58 311 0.0 1.0 0.00 0.00 0.14 81 941.4
20260905090700 58 304 0.0 1.0 0.00 0.00 0.14 81 941.3
20260905090600 58 304 0.0 1.0 0.00 0.00 0.14 81 941.3
20260905090502 58 312 1.0 1.0 0.00 0.00 0.14 81 941.3
20260905090400 59 319 0.0 1.0 0.00 0.00 0.14 82 941.4
20260905090300 59 325 0.0 1.0 0.00 0.00 0.14 81 941.5
20260905090201 59 256 1.0 1.0 0.00 0.00 0.14 81 941.2
20260905090100 59 308 1.0 1.0 0.00 0.00 0.14 81 941.4
20260905090000 59 242 0.0 1.0 0.00 0.00 0.14 82 941.4
20260905085901 59 273 1.0 1.0 0.00 0.00 0.14 82 941.4
20260905085800 59 302 0.0 1.0 0.00 0.00 0.14 81 941.2
20260905085700 59 278 0.0 1.0 0.00 0.00 0.14 81 941.0
20260905085600 59 347 0.0 1.0 0.00 0.00 0.14 81 941.3
20260905085501 59 309 1.0 1.0 0.00 0.00 0.14 80 941.4
20260905085401 59 304 0.0 2.0 0.00 0.00 0.14 79 941.2
20260905085300 60 271 1.0 2.0 0.00 0.00 0.14 79 941.4
20260905085200 60 317 1.0 2.0 0.00 0.00 0.14 79 941.1
20260905085101 59 250 1.0 2.0 0.00 0.00 0.14 81 941.1
20260905085001 59 260 0.0 1.0 0.00 0.00 0.14 83 941.2
20260905084901 58 320 0.0 1.0 0.00 0.00 0.14 84 941.3
20260905084803 58 225 0.0 1.0 0.00 0.00 0.14 84 941.1
20260905084700 58 314 0.0 1.0 0.00 0.00 0.14 83 941.2
20260905084600 58 277 0.0 1.0 0.00 0.00 0.14 84 941.1
20260905084501 58 232 1.0 1.0 0.00 0.00 0.14 84 941.1
20260905084400 58 323 0.0 1.0 0.00 0.00 0.14 85 941.3
20260905084301 58 310 0.0 1.0 0.00 0.00 0.14 85 941.1
20260905084200 58 316 0.0 1.0 0.00 0.00 0.14 84 941.1
20260905084100 58 262 1.0 1.0 0.00 0.00 0.14 84 941.1
20260905084000 58 318 0.0 1.0 0.00 0.00 0.14 84 941.1
20260905083900 58 293 0.0 1.0 0.00 0.00 0.14 84 941.1
20260905083800 58 29 0.0 1.0 0.00 0.00 0.14 85 940.8
20260905083700 58 293 0.0 1.0 0.00 0.00 0.14 84 940.9
20260905083600 58 282 0.0 1.0 0.00 0.00 0.14 85 941.0
20260905083501 58 297 0.0 1.0 0.00 0.00 0.14 85 941.0
20260905083400 58 297 0.0 1.0 0.00 0.00 0.14 85 940.9
20260905083300 58 265 0.0 1.0 0.00 0.00 0.14 85 940.9
20260905083201 58 319 0.0 1.0 0.00 0.00 0.14 84 941.0
20260905083100 58 313 1.0 1.0 0.00 0.00 0.14 84 941.1
20260905083000 58 284 1.0 1.0 0.00 0.00 0.14 84 941.0
20260905082900 58 286 0.0 1.0 0.00 0.00 0.14 85 940.8
20260905082801 58 251 0.0 1.0 0.00 0.00 0.14 85 940.9
20260905082701 58 259 1.0 1.0 0.00 0.00 0.14 85 941.0
20260905082601 58 304 1.0 1.0 0.00 0.00 0.14 85 940.8
20260905082501 58 275 0.0 1.0 0.00 0.00 0.14 84 940.8
20260905082400 58 311 1.0 1.0 0.00 0.00 0.14 84 941.0
20260905082300 58 289 0.0 1.0 0.00 0.00 0.14 84 940.9
20260905082200 58 268 1.0 1.0 0.00 0.00 0.14 83 940.8
20260905082100 58 254 1.0 1.0 0.00 0.00 0.14 84 940.9
20260905082000 58 233 0.0 1.0 0.00 0.00 0.14 84 940.8
20260905081901 58 257 0.0 1.0 0.00 0.00 0.14 85 940.9
20260905081800 58 300 0.0 1.0 0.00 0.00 0.14 85 940.7
20260905081700 57 284 0.0 0.0 0.00 0.00 0.14 86 940.8
20260905081600 57 297 0.0 1.0 0.00 0.00 0.14 86 940.9
20260905081501 57 302 0.0 1.0 0.00 0.00 0.14 87 941.0
20260905081400 57 302 0.0 1.0 0.00 0.00 0.14 86 940.7
20260905081301 57 327 0.0 1.0 0.00 0.00 0.14 86 940.7
20260905081200 57 305 1.0 1.0 0.00 0.00 0.14 86 940.7
20260905081100 57 244 1.0 1.0 0.00 0.00 0.14 87 940.9
20260905081000 57 312 0.0 1.0 0.00 0.00 0.14 87 940.7
20260905080900 57 316 0.0 1.0 0.00 0.00 0.14 87 940.8
20260905080801 57 312 0.0 1.0 0.00 0.00 0.14 86 940.9
20260905080701 57 312 0.0 2.0 0.00 0.00 0.14 86 940.9
20260905080601 57 277 2.0 2.0 0.00 0.00 0.14 86 941.0
20260905080500 57 277 2.0 2.0 0.00 0.00 0.14 86 941.0
20260905080400 57 272 0.0 1.0 0.00 0.00 0.14 85 940.7
20260905080300 57 316 0.0 2.0 0.00 0.00 0.14 85 940.9
20260905080200 57 308 1.0 2.0 0.00 0.00 0.14 87 940.9
20260905080100 57 319 0.0 1.0 0.00 0.00 0.14 88 940.7
20260905080000 57 282 0.0 1.0 0.00 0.00 0.14 89 940.9
20260905075900 57 236 0.0 1.0 0.00 0.00 0.14 89 940.6
20260905075801 57 290 0.0 1.0 0.00 0.00 0.14 89 940.7
20260905075700 57 203 1.0 1.0 0.00 0.00 0.14 90 940.9
20260905075600 56 296 0.0 1.0 0.00 0.00 0.14 90 940.7
20260905075500 56 260 0.0 1.0 0.00 0.00 0.14 90 940.7
20260905075400 56 60 0.0 0.0 0.00 0.00 0.14 91 940.8
20260905075300 56 286 0.0 1.0 0.00 0.00 0.14 91 940.5
20260905075201 56 295 0.0 1.0 0.00 0.00 0.14 91 940.8
20260905075101 56 290 0.0 1.0 0.00 0.00 0.14 92 940.8
20260905075000 56 305 0.0 1.0 0.00 0.00 0.14 92 940.7
20260905074900 55 310 0.0 1.0 0.00 0.00 0.14 92 940.5
20260905074801 55 311 0.0 2.0 0.00 0.00 0.14 92 940.8
20260905074701 55 274 0.0 2.0 0.00 0.00 0.14 92 940.9
20260905074606 55 213 1.0 1.0 0.00 0.00 0.14 92 940.8
20260905074500 55 306 0.0 1.0 0.00 0.00 0.14 92 940.8
20260905074400 55 308 0.0 1.0 0.00 0.00 0.14 92 940.8
20260905074301 55 308 0.0 1.0 0.00 0.00 0.14 92 940.7
20260905074201 55 296 1.0 1.0 0.00 0.00 0.14 92 940.8
20260905074100 55 294 0.0 1.0 0.00 0.00 0.14 92 940.6
20260905074001 55 317 0.0 1.0 0.00 0.00 0.14 92 940.6
20260905073900 55 316 0.0 1.0 0.00 0.00 0.14 92 940.8
20260905073801 55 316 0.0 1.0 0.00 0.00 0.14 92 940.8
20260905073700 55 314 0.0 1.0 0.00 0.00 0.14 92 940.5
20260905073600 55 319 0.0 1.0 0.00 0.00 0.14 92 940.6
20260905073501 55 282 0.0 1.0 0.00 0.00 0.14 92 940.6
20260905073400 55 310 0.0 1.0 0.00 0.00 0.14 92 940.7
20260905073300 55 298 0.0 1.0 0.00 0.00 0.14 92 940.5
20260905073200 55 230 0.0 1.0 0.00 0.00 0.14 92 940.6
20260905073100 55 252 0.0 1.0 0.00 0.00 0.14 91 940.4
20260905073000 55 286 0.0 1.0 0.00 0.00 0.14 92 940.4
20260905072900 55 308 0.0 1.0 0.00 0.00 0.14 91 940.4
20260905072800 55 301 1.0 1.0 0.00 0.00 0.14 91 940.3
20260905072701 55 258 1.0 1.0 0.00 0.00 0.14 91 940.6
20260905072600 55 295 0.0 1.0 0.00 0.00 0.14 91 940.5
20260905072500 55 268 0.0 1.0 0.00 0.00 0.14 92 940.5
20260905072401 55 282 0.0 1.0 0.00 0.00 0.14 91 940.4
20260905072300 54 233 0.0 1.0 0.00 0.00 0.14 91 940.5
20260905072201 54 238 1.0 1.0 0.00 0.00 0.14 91 940.6
20260905072100 54 303 1.0 1.0 0.00 0.00 0.14 91 940.5
20260905072000 54 307 0.0 1.0 0.00 0.00 0.14 91 940.4
20260905071900 54 253 0.0 1.0 0.00 0.00 0.14 91 940.5
20260905071800 54 245 0.0 1.0 0.00 0.00 0.14 91 940.5
20260905071701 54 314 0.0 0.0 0.00 0.00 0.14 91 940.5
20260905071600 54 309 0.0 1.0 0.00 0.00 0.14 91 940.5
20260905071500 54 309 0.0 1.0 0.00 0.00 0.14 91 940.3
20260905071401 54 301 0.0 1.0 0.00 0.00 0.14 91 940.5
20260905071302 54 305 0.0 1.0 0.00 0.00 0.14 91 940.5
20260905071200 54 266 1.0 1.0 0.00 0.00 0.14 91 940.6
20260905071100 54 307 0.0 1.0 0.00 0.00 0.14 91 940.3
20260905071001 54 258 0.0 0.0 0.00 0.00 0.14 91 940.4
20260905070901 54 264 0.0 1.0 0.00 0.00 0.14 91 940.4
20260905070800 54 262 0.0 1.0 0.00 0.00 0.14 91 940.3
20260905070701 54 240 0.0 1.0 0.00 0.00 0.14 91 940.5
20260905070601 54 290 0.0 1.0 0.00 0.00 0.14 91 940.5
20260905070501 54 246 0.0 1.0 0.00 0.00 0.14 90 940.3
20260905070401 54 246 0.0 1.0 0.00 0.00 0.14 90 940.3
20260905070300 54 248 0.0 1.0 0.00 0.00 0.14 90 940.3
20260905070200 54 225 1.0 1.0 0.00 0.00 0.14 90 940.3
20260905070100 54 302 0.0 1.0 0.00 0.00 0.14 90 940.1
20260905070000 54 252 0.0 1.0 0.00 0.00 0.14 90 940.4
20260905065901 54 253 1.0 1.0 0.00 0.00 0.14 90 940.4
20260905065800 54 263 0.0 1.0 0.00 0.00 0.14 90 940.5
20260905065701 54 250 0.0 1.0 0.00 0.00 0.14 90 940.3
20260905065602 54 293 1.0 1.0 0.00 0.00 0.14 90 940.4
20260905065500 54 225 0.0 3.0 0.00 0.00 0.14 90 940.3
20260905065401 54 222 1.0 3.0 0.00 0.00 0.14 91 940.4
20260905065301 54 237 1.0 2.0 0.00 0.00 0.14 91 940.5
20260905065201 54 224 1.0 1.0 0.00 0.00 0.14 91 940.5
20260905065101 54 264 0.0 1.0 0.00 0.00 0.14 91 940.3
20260905065000 54 264 1.0 2.0 0.00 0.00 0.14 91 940.5
20260905064901 53 233 0.0 2.0 0.00 0.00 0.14 91 940.2
20260905064800 53 230 0.0 1.0 0.00 0.00 0.14 92 940.4
20260905064701 53 233 0.0 1.0 0.00 0.00 0.14 92 940.2
20260905064600 53 302 0.0 1.0 0.00 0.00 0.14 92 940.4
20260905064500 53 231 0.0 1.0 0.00 0.00 0.14 92 940.3
20260905064401 53 299 0.0 1.0 0.00 0.00 0.14 92 940.3
20260905064301 53 238 0.0 1.0 0.00 0.00 0.14 92 940.2
20260905064200 53 307 0.0 0.0 0.00 0.00 0.14 92 940.4
20260905064100 53 295 0.0 1.0 0.00 0.00 0.14 92 940.5
20260905064001 53 226 0.0 1.0 0.00 0.00 0.14 93 940.4
20260905063900 53 268 0.0 1.0 0.00 0.00 0.14 93 940.2
20260905063800 53 274 0.0 1.0 0.00 0.00 0.14 93 940.3
20260905063700 53 316 0.0 1.0 0.00 0.00 0.14 93 940.2
20260905063601 53 248 0.0 1.0 0.00 0.00 0.14 94 940.3
20260905063500 53 312 1.0 1.0 0.00 0.00 0.14 94 940.2
20260905063400 53 266 0.0 1.0 0.00 0.00 0.14 94 940.2
20260905063300 53 268 1.0 1.0 0.00 0.00 0.14 94 940.3
20260905063200 53 266 0.0 1.0 0.00 0.00 0.14 95 940.3
20260905063100 53 261 0.0 1.0 0.00 0.00 0.14 95 940.4
20260905063000 53 221 0.0 1.0 0.00 0.00 0.14 95 940.6
20260905062901 53 325 0.0 1.0 0.00 0.00 0.14 95 940.4
20260905062801 53 240 0.0 2.0 0.00 0.00 0.14 95 940.4
20260905062701 53 331 1.0 1.0 0.00 0.00 0.14 95 940.4
20260905062601 53 276 0.0 1.0 0.00 0.00 0.14 95 940.5
20260905062500 53 282 0.0 2.0 0.00 0.00 0.14 95 940.6
20260905062400 53 251 0.0 3.0 0.00 0.00 0.14 95 940.5
20260905062300 53 226 0.0 3.0 0.00 0.00 0.14 95 940.6
20260905062201 53 205 1.0 2.0 0.00 0.00 0.14 95 940.7
20260905062101 53 311 0.0 1.0 0.00 0.00 0.14 95 940.5
20260905062001 53 221 1.0 2.0 0.00 0.00 0.14 95 940.6
20260905061901 53 219 1.0 2.0 0.00 0.00 0.14 95 940.6
20260905061800 53 254 0.0 1.0 0.00 0.00 0.14 95 940.6
20260905061700 53 224 1.0 2.0 0.00 0.00 0.14 95 940.5
20260905061601 53 220 1.0 2.0 0.00 0.00 0.14 95 940.5
20260905061501 53 231 1.0 1.0 0.00 0.00 0.14 96 940.5
20260905061400 53 248 0.0 2.0 0.00 0.00 0.14 95 940.5
20260905061300 53 229 1.0 3.0 0.00 0.00 0.14 95 940.4
20260905061201 53 214 2.0 3.0 0.00 0.00 0.14 95 940.5
20260905061100 53 204 2.0 3.0 0.00 0.00 0.14 95 940.4
20260905061001 53 226 0.0 1.0 0.00 0.00 0.14 95 940.5
20260905060902 53 223 0.0 2.0 0.00 0.00 0.14 96 940.4
20260905060801 53 229 1.0 2.0 0.00 0.00 0.14 95 940.5
20260905060701 53 224 0.0 1.0 0.00 0.00 0.14 95 940.3
20260905060600 53 223 1.0 1.0 0.00 0.00 0.14 95 940.2
20260905060500 53 225 1.0 1.0 0.00 0.00 0.14 95 940.4
20260905060400 53 224 0.0 1.0 0.00 0.00 0.14 95 940.5
20260905060300 53 224 0.0 1.0 0.00 0.00 0.14 95 940.5
20260905060200 53 225 1.0 2.0 0.00 0.00 0.14 95 940.1
20260905060100 53 210 1.0 2.0 0.00 0.00 0.14 95 940.2
20260905060001 53 228 1.0 2.0 0.00 0.00 0.14 95 940.3
20260905055905 52 232 0.0 2.0 0.00 0.00 0.14 95 940.1
20260905055800 52 230 0.0 1.0 0.00 0.00 0.14 95 940.2
20260905055700 52 219 0.0 2.0 0.00 0.00 0.14 95 940.4
20260905055600 52 228 0.0 3.0 0.00 0.00 0.14 95 940.3
20260905055501 52 210 2.0 3.0 0.00 0.00 0.14 95 940.2
20260905055400 52 200 1.0 2.0 0.00 0.00 0.14 95 939.9
20260905055300 52 238 0.0 2.0 0.00 0.00 0.14 95 940.2
20260905055200 52 223 1.0 2.0 0.00 0.00 0.14 95 940.2
20260905055100 52 212 0.0 2.0 0.00 0.00 0.14 95 940.0
20260905055000 52 234 0.0 2.0 0.00 0.00 0.14 95 940.1
20260905054901 52 230 0.0 2.0 0.00 0.00 0.14 95 940.2
20260905054800 52 227 1.0 2.0 0.00 0.00 0.14 95 940.3
20260905054700 52 211 1.0 2.0 0.00 0.00 0.14 95 940.1
20260905054601 52 227 0.0 2.0 0.00 0.00 0.14 95 939.9
20260905054500 52 227 0.0 2.0 0.00 0.00 0.14 95 940.0
20260905054400 52 195 1.0 1.0 0.00 0.00 0.14 95 940.2
20260905054300 52 213 1.0 2.0 0.00 0.00 0.14 95 940.1
20260905054201 52 232 0.0 2.0 0.00 0.00 0.14 95 940.1
20260905054100 52 210 1.0 1.0 0.00 0.00 0.14 95 939.9
20260905054001 52 212 1.0 1.0 0.00 0.00 0.14 95 940.1
20260905053901 52 217 1.0 1.0 0.00 0.00 0.14 95 939.9
20260905053801 52 239 0.0 0.0 0.00 0.00 0.14 95 939.8
20260905053702 52 266 0.0 0.0 0.00 0.00 0.14 95 940.1
20260905053601 52 294 0.0 0.0 0.00 0.00 0.14 95 939.8
20260905053500 52 295 0.0 0.0 0.00 0.00 0.14 95 940.0
20260905053400 52 219 0.0 2.0 0.00 0.00 0.14 95 939.5
20260905053301 52 223 1.0 2.0 0.00 0.00 0.14 95 939.6
20260905053201 52 175 1.0 2.0 0.00 0.00 0.14 95 939.6
20260905053100 52 223 0.0 1.0 0.00 0.00 0.14 95 939.6
20260905053000 52 269 0.0 0.0 0.00 0.00 0.14 95 939.8
20260905052900 52 270 0.0 0.0 0.00 0.00 0.14 95 939.8
20260905052800 52 269 0.0 0.0 0.00 0.00 0.14 95 939.7
20260905052700 52 246 0.0 1.0 0.00 0.00 0.14 95 939.9
20260905052600 52 243 0.0 1.0 0.00 0.00 0.14 95 939.5
20260905052500 52 222 1.0 2.0 0.00 0.00 0.14 95 939.6
20260905052400 52 225 1.0 2.0 0.00 0.00 0.14 95 939.4
20260905052300 52 222 1.0 3.0 0.00 0.00 0.14 95 939.2
20260905052200 52 213 1.0 3.0 0.00 0.00 0.14 95 939.2
20260905052101 52 221 2.0 3.0 0.00 0.00 0.14 95 939.3
20260905052000 52 212 2.0 3.0 0.00 0.00 0.14 95 939.2
20260905051900 52 213 2.0 3.0 0.00 0.00 0.14 95 939.2
20260905051801 52 204 3.0 3.0 0.00 0.00 0.14 94 939.0
20260905051700 52 219 3.0 3.0 0.00 0.00 0.14 94 939.0
20260905051600 52 199 3.0 3.0 0.00 0.00 0.14 94 938.9
20260905051500 52 208 3.0 3.0 0.00 0.00 0.14 94 938.9
20260905051400 52 210 3.0 3.0 0.00 0.00 0.14 94 939.1
20260905051300 52 206 3.0 3.0 0.00 0.00 0.14 94 938.9
20260905051200 52 190 3.0 3.0 0.00 0.00 0.14 94 938.7
20260905051100 52 203 3.0 3.0 0.00 0.00 0.14 93 938.9
20260905051000 52 181 3.0 4.0 0.00 0.00 0.14 93 938.8
20260905050900 52 188 2.0 4.0 0.00 0.00 0.14 93 938.9
20260905050800 52 174 2.0 3.0 0.00 0.00 0.14 93 939.1
20260905050700 52 205 2.0 3.0 0.00 0.00 0.14 93 939.3
20260905050601 52 199 2.0 3.0 0.00 0.00 0.14 93 939.4
20260905050500 52 190 2.0 3.0 0.00 0.00 0.13 93 939.5
20260905050400 52 212 2.0 3.0 0.00 0.00 0.13 93 939.5
20260905050301 52 212 2.0 3.0 0.00 0.00 0.13 93 939.5
20260905050200 52 219 2.0 3.0 0.00 0.00 0.13 93 939.6
20260905050101 52 211 2.0 3.0 0.00 0.00 0.13 93 939.4
20260905050000 52 218 1.0 2.0 0.00 0.00 0.12 93 939.7
20260905045900 52 214 2.0 2.0 0.00 0.00 0.12 93 939.5
20260905045801 52 232 2.0 2.0 0.00 0.00 0.12 93 939.8
20260905045701 52 228 1.0 2.0 0.00 0.00 0.12 93 939.8
20260905045600 52 225 1.0 2.0 0.00 0.00 0.12 93 939.8
20260905045501 52 240 1.0 2.0 0.00 0.00 0.12 93 939.8
20260905045400 52 218 1.0 2.0 0.00 0.00 0.12 93 939.7
20260905045305 52 219 1.0 1.0 0.00 0.00 0.12 92 939.7
20260905045200 52 222 1.0 1.0 0.00 0.00 0.12 92 939.8
20260905045100 52 240 1.0 1.0 0.00 0.00 0.12 92 939.6
20260905045001 52 240 0.0 1.0 0.00 0.00 0.11 92 939.9
20260905044900 52 240 0.0 1.0 0.00 0.00 0.11 92 939.8
20260905044800 52 223 0.0 1.0 0.00 0.00 0.11 92 939.4
20260905044701 52 239 0.0 1.0 0.00 0.00 0.10 92 939.7
20260905044600 52 237 0.0 1.0 0.00 0.00 0.10 92 939.7
20260905044502 52 277 0.0 0.0 0.00 0.00 0.10 92 939.8
20260905044401 52 263 0.0 1.0 0.00 0.00 0.10 91 939.8
20260905044300 52 269 0.0 1.0 0.00 0.00 0.10 91 939.7
20260905044200 52 306 0.0 1.0 0.00 0.00 0.10 91 939.7
20260905044100 52 265 0.0 1.0 0.00 0.00 0.10 91 939.7
20260905044000 52 317 0.0 1.0 0.00 0.00 0.09 91 939.6
20260905043901 53 279 0.0 1.0 0.00 0.00 0.09 91 939.6
20260905043800 53 278 0.0 1.0 0.00 0.00 0.09 90 939.5
20260905043700 53 308 0.0 1.0 0.00 0.00 0.09 90 939.4
20260905043600 53 302 0.0 1.0 0.00 0.00 0.09 90 939.7
20260905043501 53 282 0.0 1.0 0.00 0.00 0.08 90 939.5
20260905043400 53 254 0.0 1.0 0.00 0.00 0.08 90 939.6
20260905043300 53 277 0.0 1.0 0.00 0.00 0.08 89 939.7
20260905043200 53 313 1.0 1.0 0.00 0.00 0.07 89 939.6
20260905043101 53 286 0.0 1.0 0.00 0.00 0.07 89 939.5
20260905043000 53 314 0.0 1.0 0.00 0.00 0.07 89 939.5
20260905042900 53 311 1.0 1.0 0.00 0.00 0.06 88 939.7
20260905042800 53 305 1.0 2.0 0.00 0.00 0.06 88 939.7
20260905042700 53 309 1.0 2.0 0.00 0.00 0.05 88 939.7
20260905042600 54 299 1.0 1.0 0.00 0.00 0.05 88 939.9
20260905042500 54 305 1.0 2.0 0.00 0.00 0.04 87 939.9
20260905042400 54 298 1.0 1.0 0.00 0.00 0.04 87 940.0
20260905042300 54 277 1.0 1.0 0.00 0.00 0.04 86 940.0
20260905042201 54 325 1.0 1.0 0.00 0.00 0.03 86 940.0
20260905042100 54 304 0.0 1.0 0.00 0.00 0.03 86 939.8
20260905042000 54 294 0.0 1.0 0.00 0.00 0.03 86 939.9
20260905041900 54 303 0.0 1.0 0.00 0.00 0.03 85 939.7
20260905041800 54 328 0.0 1.0 0.00 0.00 0.03 85 939.8
20260905041700 54 318 0.0 1.0 0.00 0.00 0.02 85 939.7
20260905041600 54 283 0.0 1.0 0.00 0.00 0.02 84 939.9
20260905041501 54 238 1.0 1.0 0.00 0.00 0.02 84 939.9
20260905041400 54 294 1.0 1.0 0.00 0.00 0.02 84 939.8
20260905041300 54 245 0.0 1.0 0.00 0.00 0.02 84 939.7
20260905041200 54 244 0.0 1.0 0.00 0.00 0.02 84 939.6
20260905041101 54 261 0.0 0.0 0.00 0.00 0.02 84 939.6
20260905041000 55 316 0.0 1.0 0.00 0.00 0.02 84 939.6
20260905040900 55 316 0.0 1.0 0.00 0.00 0.02 84 939.7
20260905040800 55 284 0.0 1.0 0.00 0.00 0.02 84 939.6
20260905040700 55 286 0.0 1.0 0.00 0.00 0.02 83 939.6
20260905040601 54 264 0.0 1.0 0.00 0.00 0.02 83 939.8
20260905040500 54 290 0.0 1.0 0.00 0.00 0.02 83 939.4
20260905040400 54 318 0.0 1.0 0.00 0.00 0.02 84 939.6
20260905040301 55 253 0.0 1.0 0.00 0.00 0.02 83 939.4
20260905040200 55 251 1.0 1.0 0.00 0.00 0.02 84 939.4
20260905040101 55 251 1.0 1.0 0.00 0.00 0.02 84 939.4
20260905040000 55 304 0.0 1.0 0.00 0.00 0.02 83 939.4
20260905035900 55 251 0.0 1.0 0.00 0.00 0.02 83 939.6
20260905035800 55 316 0.0 1.0 0.00 0.00 0.02 83 939.4
20260905035700 55 297 0.0 1.0 0.00 0.00 0.02 83 939.1
20260905035600 55 309 0.0 1.0 0.00 0.00 0.02 83 939.1
20260905035500 55 305 1.0 1.0 0.00 0.00 0.02 83 939.3
20260905035400 55 323 0.0 1.0 0.00 0.00 0.02 83 939.1
20260905035300 55 321 0.0 1.0 0.00 0.00 0.02 83 939.2
20260905035200 55 313 0.0 1.0 0.00 0.00 0.02 83 939.1
20260905035100 55 298 0.0 1.0 0.00 0.00 0.02 83 939.1
20260905035000 55 300 0.0 1.0 0.00 0.00 0.02 83 939.1
20260905034900 55 307 0.0 1.0 0.00 0.00 0.02 83 939.1
20260905034800 55 310 0.0 1.0 0.00 0.00 0.01 83 938.8
20260905034702 55 280 1.0 1.0 0.00 0.00 0.01 83 938.8
20260905034601 55 309 1.0 1.0 0.00 0.00 0.01 84 938.7
20260905034501 55 308 1.0 1.0 0.00 0.00 0.01 84 938.7
20260905034400 55 323 1.0 1.0 0.00 0.00 0.01 84 938.5
20260905034301 55 294 1.0 1.0 0.00 0.00 0.01 85 938.9
20260905034201 55 318 0.0 1.0 0.00 0.00 0.01 86 939.1
20260905034101 55 306 0.0 1.0 0.00 0.00 0.01 86 939.1
20260905034001 55 303 0.0 1.0 0.00 0.00 0.01 86 939.2
20260905033900 55 313 1.0 1.0 0.00 0.00 0.01 86 939.0
20260905033800 55 264 0.0 1.0 0.00 0.00 0.01 86 939.0
20260905033701 55 304 0.0 1.0 0.00 0.00 0.01 86 939.1
20260905033600 55 283 0.0 1.0 0.00 0.00 0.01 86 938.9
20260905033500 55 309 1.0 1.0 0.00 0.00 0.01 86 938.8
20260905033401 55 307 1.0 1.0 0.00 0.00 0.01 85 938.7
20260905033301 55 295 1.0 1.0 0.00 0.00 0.01 85 938.9
20260905033200 55 304 1.0 1.0 0.00 0.00 0.01 85 938.9
20260905033101 56 303 0.0 1.0 0.00 0.00 0.01 86 938.9
20260905033000 56 311 0.0 1.0 0.00 0.00 0.01 86 939.0
20260905032900 56 239 0.0 1.0 0.00 0.00 0.00 86 939.1
20260905032800 56 256 0.0 1.0 0.00 0.00 0.00 87 939.2
20260905032700 56 225 0.0 1.0 0.00 0.00 0.00 87 939.3
20260905032600 56 238 0.0 1.0 0.00 0.00 0.00 87 939.2
20260905032500 56 296 0.0 1.0 0.00 0.00 0.00 87 939.3
20260905032401 56 244 1.0 1.0 0.00 0.00 0.00 87 939.2
20260905032301 56 234 0.0 1.0 0.00 0.00 0.00 87 939.0
20260905032200 56 247 0.0 0.0 0.00 0.00 0.00 87 938.8
20260905032100 56 268 0.0 0.0 0.00 0.00 0.00 87 938.9
20260905032000 56 268 0.0 0.0 0.00 0.00 0.00 87 938.7
20260905031900 56 268 0.0 0.0 0.00 0.00 0.00 87 938.7
20260905031800 56 266 0.0 0.0 0.00 0.00 0.00 87 938.8
20260905031701 56 266 0.0 0.0 0.00 0.00 0.00 87 938.5
20260905031601 56 266 0.0 0.0 0.00 0.00 0.00 87 938.4
20260905031501 56 266 0.0 0.0 0.00 0.00 0.00 88 938.6
20260905031400 56 266 0.0 0.0 0.00 0.00 0.00 88 938.6
20260905031301 56 261 0.0 0.0 0.00 0.00 0.00 88 938.5
20260905031201 56 256 0.0 0.0 0.00 0.00 0.00 88 938.3
20260905031101 56 256 0.0 0.0 0.00 0.00 0.00 88 938.3
20260905031000 56 256 0.0 0.0 0.00 0.00 0.00 88 938.2
20260905030901 56 222 0.0 0.0 0.00 0.00 0.00 88 938.2
20260905030800 56 222 0.0 1.0 0.00 0.00 0.00 88 938.2
20260905030700 56 218 1.0 1.0 0.00 0.00 0.00 88 938.2
20260905030601 56 215 1.0 1.0 0.00 0.00 0.00 88 938.3
20260905030500 56 206 1.0 2.0 0.00 0.00 0.00 88 938.4
20260905030400 56 210 1.0 2.0 0.00 0.00 0.00 88 938.4
20260905030300 56 210 1.0 2.0 0.00 0.00 0.00 88 938.4
20260905030201 56 203 2.0 2.0 0.00 0.00 0.00 88 938.9
20260905030100 56 203 2.0 2.0 0.00 0.00 0.00 88 938.9
20260905030001 56 208 2.0 2.0 0.00 0.00 0.00 88 938.6
20260905025900 56 209 1.0 1.0 0.00 0.00 0.00 87 938.8
20260905025800 57 208 0.0 1.0 0.00 0.00 0.00 87 938.6
20260905025700 57 287 0.0 0.0 0.00 0.00 0.00 87 938.6
20260905025600 57 315 0.0 0.0 0.00 0.00 0.00 87 938.8
20260905025500 57 315 0.0 1.0 0.00 0.00 0.00 87 938.8
20260905025400 57 298 0.0 0.0 0.00 0.00 0.00 87 938.9
20260905025301 57 308 0.0 1.0 0.00 0.00 0.00 87 938.6
20260905025201 57 301 0.0 1.0 0.00 0.00 0.00 86 938.5
20260905025100 57 295 0.0 0.0 0.00 0.00 0.00 86 938.6
20260905025000 57 287 0.0 1.0 0.00 0.00 0.00 86 938.5
20260905024900 57 305 0.0 1.0 0.00 0.00 0.00 86 938.3
20260905024801 57 322 1.0 1.0 0.00 0.00 0.00 86 938.7
20260905024700 57 300 1.0 1.0 0.00 0.00 0.00 86 938.2
20260905024600 57 343 1.0 2.0 0.00 0.00 0.00 86 938.4
20260905024500 57 302 1.0 2.0 0.00 0.00 0.00 86 938.3
20260905024400 57 298 1.0 2.0 0.00 0.00 0.00 86 938.4
20260905024300 57 324 2.0 2.0 0.00 0.00 0.00 86 938.4
20260905024201 57 308 1.0 1.0 0.00 0.00 0.00 87 938.4
20260905024103 57 307 0.0 2.0 0.00 0.00 0.00 86 938.1
20260905024000 57 310 0.0 2.0 0.00 0.00 0.00 86 938.5
20260905023900 57 311 0.0 1.0 0.00 0.00 0.00 86 938.3
20260905023800 57 295 1.0 1.0 0.00 0.00 0.00 86 938.5
20260905023700 57 311 0.0 1.0 0.00 0.00 0.00 86 938.5
20260905023600 57 303 0.0 2.0 0.00 0.00 0.00 86 938.3
20260905023501 57 318 1.0 3.0 0.00 0.00 0.00 86 938.3
20260905023400 57 316 2.0 3.0 0.00 0.00 0.00 86 938.4
20260905023301 57 310 2.0 3.0 0.00 0.00 0.00 86 938.5
20260905023200 57 356 2.0 2.0 0.00 0.00 0.00 87 938.4
20260905023100 57 307 2.0 2.0 0.00 0.00 0.00 86 938.5
20260905023001 57 310 2.0 3.0 0.00 0.00 0.00 86 938.3
20260905022900 57 344 2.0 2.0 0.00 0.00 0.00 86 938.3
20260905022800 57 314 2.0 2.0 0.00 0.00 0.00 87 938.4
20260905022701 57 332 1.0 2.0 0.00 0.00 0.00 87 938.6
20260905022600 57 316 1.0 2.0 0.00 0.00 0.00 87 938.6
20260905022500 57 326 1.0 2.0 0.00 0.00 0.00 87 938.5
20260905022400 57 317 1.0 2.0 0.00 0.00 0.00 87 938.6
20260905022301 57 320 1.0 1.0 0.00 0.00 0.00 87 938.6
20260905022202 57 295 0.0 1.0 0.00 0.00 0.00 87 938.5
20260905022101 57 306 1.0 1.0 0.00 0.00 0.00 87 938.6
20260905022000 57 304 1.0 1.0 0.00 0.00 0.00 86 938.8
20260905021902 57 302 1.0 2.0 0.00 0.00 0.00 86 938.4
20260905021801 57 314 1.0 2.0 0.00 0.00 0.00 86 938.6
20260905021700 57 335 2.0 2.0 0.00 0.00 0.00 86 938.3
20260905021600 58 318 1.0 2.0 0.00 0.00 0.00 86 938.4
20260905021500 57 335 1.0 2.0 0.00 0.00 0.00 86 938.2
20260905021400 57 340 1.0 2.0 0.00 0.00 0.00 86 938.6
20260905021300 57 306 1.0 2.0 0.00 0.00 0.00 86 938.3
20260905021200 58 290 1.0 2.0 0.00 0.00 0.00 86 938.6
20260905021100 58 316 1.0 2.0 0.00 0.00 0.00 86 938.4
20260905021000 58 303 1.0 2.0 0.00 0.00 0.00 86 938.5
20260905020900 58 291 1.0 1.0 0.00 0.00 0.00 86 938.4
20260905020800 58 316 1.0 2.0 0.00 0.00 0.00 86 938.3
20260905020701 58 316 1.0 2.0 0.00 0.00 0.00 86 938.3
20260905020600 58 308 1.0 3.0 0.00 0.00 0.00 86 938.3
20260905020500 58 304 1.0 4.0 0.00 0.00 0.00 86 938.1
20260905020400 58 340 1.0 2.0 0.00 0.00 0.00 87 938.2
20260905020300 58 305 1.0 2.0 0.00 0.00 0.00 87 938.3
20260905020200 58 312 1.0 2.0 0.00 0.00 0.00 87 938.0
20260905020100 58 314 1.0 1.0 0.00 0.00 0.00 87 938.2
20260905020000 58 311 1.0 1.0 0.00 0.00 0.00 87 938.2
20260905015900 58 311 1.0 1.0 0.00 0.00 0.00 87 938.2
20260905015801 58 305 0.0 1.0 0.00 0.00 0.00 87 938.2
20260905015701 58 221 0.0 1.0 0.00 0.00 0.00 87 938.2
20260905015601 58 296 0.0 1.0 0.00 0.00 0.00 87 938.2
20260905015501 58 310 0.0 1.0 0.00 0.00 0.00 87 938.1
20260905015401 58 307 0.0 1.0 0.00 0.00 0.00 86 938.0
20260905015300 58 306 0.0 1.0 0.00 0.00 0.00 86 937.9
20260905015200 58 314 0.0 1.0 0.00 0.00 0.00 86 938.0
20260905015100 58 302 0.0 1.0 0.00 0.00 0.00 86 938.0
20260905015000 58 332 0.0 0.0 0.00 0.00 0.00 86 938.0
20260905014900 58 297 0.0 1.0 0.00 0.00 0.00 86 938.2
20260905014801 58 285 0.0 1.0 0.00 0.00 0.00 86 938.1
20260905014700 58 304 0.0 1.0 0.00 0.00 0.00 85 937.9
20260905014600 58 299 0.0 1.0 0.00 0.00 0.00 85 938.0
20260905014500 58 306 1.0 1.0 0.00 0.00 0.00 85 937.9
20260905014400 58 304 1.0 2.0 0.00 0.00 0.00 85 938.0
20260905014300 58 307 1.0 2.0 0.00 0.00 0.00 85 937.7
20260905014200 58 334 0.0 1.0 0.00 0.00 0.00 85 938.0
20260905014100 58 305 1.0 1.0 0.00 0.00 0.00 85 937.6
20260905014000 58 310 0.0 1.0 0.00 0.00 0.00 85 937.9
20260905013901 58 308 0.0 1.0 0.00 0.00 0.00 85 937.5
20260905013800 58 295 1.0 1.0 0.00 0.00 0.00 85 937.6
20260905013700 58 312 0.0 1.0 0.00 0.00 0.00 85 937.6
20260905013601 58 309 0.0 2.0 0.00 0.00 0.00 85 937.6
20260905013500 58 304 0.0 2.0 0.00 0.00 0.00 85 937.7
20260905013400 58 314 0.0 2.0 0.00 0.00 0.00 85 937.6
20260905013300 58 316 1.0 2.0 0.00 0.00 0.00 85 937.4
20260905013201 58 311 0.0 1.0 0.00 0.00 0.00 85 937.6
20260905013101 58 299 0.0 1.0 0.00 0.00 0.00 85 937.6
20260905013000 58 296 0.0 1.0 0.00 0.00 0.00 85 937.7
20260905012900 58 307 0.0 1.0 0.00 0.00 0.00 85 937.5
20260905012800 58 297 0.0 2.0 0.00 0.00 0.00 85 937.8
20260905012701 58 317 1.0 2.0 0.00 0.00 0.00 85 937.4
20260905012600 58 314 0.0 1.0 0.00 0.00 0.00 85 937.6
20260905012500 58 287 0.0 1.0 0.00 0.00 0.00 85 937.6
20260905012400 58 302 0.0 1.0 0.00 0.00 0.00 85 937.8
20260905012300 58 300 0.0 1.0 0.00 0.00 0.00 85 937.5
20260905012200 58 297 1.0 1.0 0.00 0.00 0.00 85 937.7
20260905012101 58 304 0.0 1.0 0.00 0.00 0.00 85 937.8
20260905012001 58 311 1.0 3.0 0.00 0.00 0.00 85 937.7
20260905011900 58 305 1.0 3.0 0.00 0.00 0.00 85 937.5
20260905011800 58 323 2.0 2.0 0.00 0.00 0.00 85 937.3
20260905011701 58 325 0.0 2.0 0.00 0.00 0.00 85 937.7
20260905011601 58 305 1.0 2.0 0.00 0.00 0.00 85 937.8
20260905011500 58 336 1.0 3.0 0.00 0.00 0.00 85 937.6
20260905011400 58 302 2.0 3.0 0.00 0.00 0.00 85 937.7
20260905011301 58 328 2.0 3.0 0.00 0.00 0.00 85 937.7
20260905011200 58 312 2.0 3.0 0.00 0.00 0.00 85 937.5
20260905011100 58 330 1.0 3.0 0.00 0.00 0.00 85 937.6
20260905011000 58 335 2.0 3.0 0.00 0.00 0.00 85 937.5
20260905010901 58 332 2.0 3.0 0.00 0.00 0.00 85 937.7
20260905010800 58 316 1.0 2.0 0.00 0.00 0.00 85 937.5
20260905010700 58 340 1.0 2.0 0.00 0.00 0.00 85 937.5
20260905010600 58 324 2.0 2.0 0.00 0.00 0.00 85 937.5
20260905010500 58 333 1.0 2.0 0.00 0.00 0.00 85 937.4
20260905010400 58 320 1.0 2.0 0.00 0.00 0.00 85 937.4
20260905010300 58 320 2.0 3.0 0.00 0.00 0.00 85 937.6
20260905010200 58 311 2.0 3.0 0.00 0.00 0.00 85 937.8
20260905010100 59 349 2.0 3.0 0.00 0.00 0.00 85 937.8
20260905010000 59 308 1.0 3.0 0.00 0.00 0.00 85 937.6
20260905005900 59 308 1.0 3.0 0.00 0.00 0.00 85 937.6
20260905005801 59 308 1.0 3.0 0.00 0.00 0.00 84 937.8
20260905005700 59 314 3.0 3.0 0.00 0.00 0.00 84 937.9
20260905005600 59 336 2.0 4.0 0.00 0.00 0.00 84 937.6
20260905005501 59 338 3.0 4.0 0.00 0.00 0.00 84 937.8
20260905005400 59 324 3.0 3.0 0.00 0.00 0.00 84 937.6
20260905005300 59 326 2.0 3.0 0.00 0.00 0.00 84 937.8
20260905005201 59 317 2.0 4.0 0.00 0.00 0.00 84 937.7
20260905005101 59 314 3.0 4.0 0.00 0.00 0.00 83 937.8
20260905005000 59 331 4.0 6.0 0.00 0.00 0.00 83 937.7
20260905004902 59 328 5.0 5.0 0.00 0.00 0.00 84 937.5
20260905004800 59 309 3.0 4.0 0.00 0.00 0.00 84 937.4
20260905004700 59 319 3.0 6.0 0.00 0.00 0.00 83 937.5
20260905004600 59 308 4.0 6.0 0.00 0.00 0.00 83 937.6
20260905004501 59 326 2.0 4.0 0.00 0.00 0.00 84 937.4
20260905004401 59 320 2.0 5.0 0.00 0.00 0.00 84 937.4
20260905004300 59 309 4.0 5.0 0.00 0.00 0.00 84 937.6
20260905004200 59 330 4.0 5.0 0.00 0.00 0.00 84 937.5
20260905004101 59 325 2.0 4.0 0.00 0.00 0.00 84 937.7
20260905004000 59 332 4.0 5.0 0.00 0.00 0.00 84 937.8
20260905003900 59 307 4.0 4.0 0.00 0.00 0.00 84 937.7
20260905003800 59 316 3.0 4.0 0.00 0.00 0.00 84 937.6
20260905003700 59 307 3.0 4.0 0.00 0.00 0.00 84 937.5
20260905003601 59 337 3.0 6.0 0.00 0.00 0.00 83 937.5
20260905003500 59 331 4.0 6.0 0.00 0.00 0.00 83 937.5
20260905003400 59 335 5.0 6.0 0.00 0.00 0.00 83 937.6
20260905003300 59 341 3.0 6.0 0.00 0.00 0.00 83 937.4
20260905003200 59 344 5.0 6.0 0.00 0.00 0.00 83 937.5
20260905003100 59 334 3.0 5.0 0.00 0.00 0.00 83 937.4
20260905003000 59 341 4.0 5.0 0.00 0.00 0.00 84 937.5
20260905002900 59 330 4.0 5.0 0.00 0.00 0.00 84 937.5
20260905002800 59 323 4.0 6.0 0.00 0.00 0.00 83 937.5
20260905002701 59 324 4.0 6.0 0.00 0.00 0.00 83 937.2
20260905002600 59 331 4.0 5.0 0.00 0.00 0.00 83 937.3
20260905002500 59 323 4.0 5.0 0.00 0.00 0.00 83 937.4
20260905002401 59 326 3.0 7.0 0.00 0.00 0.00 83 937.3
20260905002301 59 336 5.0 7.0 0.00 0.00 0.00 83 937.3
20260905002200 59 329 5.0 6.0 0.00 0.00 0.00 83 937.1
20260905002100 59 324 3.0 4.0 0.00 0.00 0.00 83 937.3
20260905002000 60 320 4.0 5.0 0.00 0.00 0.00 82 937.4
20260905001900 60 302 4.0 5.0 0.00 0.00 0.00 82 937.3
20260905001800 60 316 4.0 6.0 0.00 0.00 0.00 81 937.5
20260905001700 60 326 3.0 6.0 0.00 0.00 0.00 80 937.4
20260905001600 60 331 4.0 5.0 0.00 0.00 0.00 80 937.7
20260905001500 60 325 4.0 7.0 0.00 0.00 0.00 79 937.4
20260905001400 60 326 5.0 7.0 0.00 0.00 0.00 78 937.4
20260905001300 60 339 6.0 7.0 0.00 0.00 0.00 78 937.4
20260905001200 61 320 6.0 9.0 0.00 0.00 0.00 78 937.4
20260905001100 61 316 5.0 9.0 0.00 0.00 0.00 78 937.3
20260905001000 61 307 4.0 7.0 0.00 0.00 0.00 77 937.3
20260905000900 61 332 6.0 7.0 0.00 0.00 0.00 77 937.0
20260905000801 61 316 5.0 6.0 0.00 0.00 0.00 77 937.1
20260905000701 61 311 4.0 7.0 0.00 0.00 0.00 77 936.9
20260905000600 61 338 5.0 6.0 0.00 0.00 0.00 77 937.0
20260905000500 61 319 5.0 6.0 0.00 0.00 0.00 77 937.2
20260905000402 61 305 4.0 7.0 0.00 0.00 0.00 77 937.2
20260905000303 61 330 6.0 7.0 0.00 0.00 0.00 77 937.1
20260905000200 61 323 4.0 5.0 0.00 0.00 0.00 77 937.0
20260905000000 61 340 6.0 7.0 0.00 0.00 0.00 77 936.9
20260904235900 61 301 5.0 7.0 0.00 0.00 0.00 77 936.8
20260904235800 61 301 5.0 7.0 0.00 0.00 0.00 77 936.8
20260904235700 61 334 6.0 7.0 0.00 0.00 0.00 77 936.7
20260904235600 61 332 6.0 7.0 0.00 0.00 0.00 77 936.8
20260904235501 61 314 5.0 5.0 0.00 0.00 0.00 77 936.9
20260904235401 61 307 4.0 5.0 0.00 0.00 0.00 77 937.0
20260904235300 61 309 4.0 6.0 0.00 0.00 0.00 77 937.1
20260904235200 61 322 5.0 6.0 0.00 0.00 0.00 77 937.0
20260904235101 61 338 5.0 7.0 0.00 0.00 0.00 77 937.0
20260904235000 61 337 4.0 6.0 0.00 0.00 0.00 77 936.8
20260904234901 61 332 5.0 9.0 0.00 0.00 0.00 77 937.0
20260904234800 61 304 6.0 8.0 0.00 0.00 0.00 77 937.2
20260904234700 61 334 7.0 8.0 0.00 0.00 0.00 77 937.1
20260904234601 61 339 4.0 6.0 0.00 0.00 0.00 77 937.5
20260904234500 61 327 5.0 7.0 0.00 0.00 0.00 77 937.4
20260904234400 61 339 5.0 7.0 0.00 0.00 0.00 77 937.3
20260904234301 61 302 4.0 6.0 0.00 0.00 0.00 77 937.0
20260904234200 61 332 5.0 6.0 0.00 0.00 0.00 77 936.9
20260904234100 61 344 6.0 6.0 0.00 0.00 0.00 77 936.8
20260904234000 61 312 5.0 6.0 0.00 0.00 0.00 77 937.0
20260904233900 61 334 5.0 8.0 0.00 0.00 0.00 76 936.7
20260904233800 62 330 6.0 8.0 0.00 0.00 0.00 76 936.7
20260904233700 62 333 6.0 7.0 0.00 0.00 0.00 76 936.8
20260904233600 62 336 5.0 6.0 0.00 0.00 0.00 76 936.6
20260904233501 62 337 5.0 6.0 0.00 0.00 0.00 76 936.8
20260904233400 62 333 6.0 8.0 0.00 0.00 0.00 76 936.4
20260904233300 62 345 5.0 8.0 0.00 0.00 0.00 75 936.6
20260904233200 62 326 5.0 6.0 0.00 0.00 0.00 75 936.4
20260904233100 62 327 5.0 8.0 0.00 0.00 0.00 75 936.5
20260904233000 62 336 5.0 8.0 0.00 0.00 0.00 75 936.6
20260904232900 62 337 4.0 5.0 0.00 0.00 0.00 75 936.5
20260904232800 62 331 4.0 5.0 0.00 0.00 0.00 75 936.7
20260904232700 62 329 3.0 4.0 0.00 0.00 0.00 75 936.4
20260904232600 62 348 4.0 6.0 0.00 0.00 0.00 75 936.2
20260904232500 63 347 4.0 6.0 0.00 0.00 0.00 75 936.3
20260904232401 63 342 5.0 8.0 0.00 0.00 0.00 74 936.1
20260904232301 63 328 6.0 8.0 0.00 0.00 0.00 74 936.1
20260904232200 63 322 5.0 7.0 0.00 0.00 0.00 74 936.3
20260904232100 64 348 5.0 7.0 0.00 0.00 0.00 74 936.0
20260904232000 64 344 5.0 7.0 0.00 0.00 0.00 73 936.1
20260904231900 64 324 5.0 6.0 0.00 0.00 0.00 73 936.0
20260904231800 64 330 5.0 6.0 0.00 0.00 0.00 73 935.9
20260904231700 64 310 5.0 5.0 0.00 0.00 0.00 73 936.0
20260904231601 64 339 4.0 5.0 0.00 0.00 0.00 73 935.9
20260904231500 64 338 4.0 5.0 0.00 0.00 0.00 73 935.9
20260904231400 64 340 3.0 4.0 0.00 0.00 0.00 72 935.9
20260904231301 64 316 3.0 5.0 0.00 0.00 0.00 73 935.9
20260904231201 65 326 5.0 6.0 0.00 0.00 0.00 72 936.0
20260904231100 65 316 6.0 6.0 0.00 0.00 0.00 72 935.8
20260904231000 65 334 4.0 5.0 0.00 0.00 0.00 72 935.7
20260904230901 65 314 4.0 5.0 0.00 0.00 0.00 72 936.0
20260904230800 66 332 4.0 5.0 0.00 0.00 0.00 71 935.9
20260904230700 66 340 4.0 6.0 0.00 0.00 0.00 71 935.8
20260904230601 67 338 4.0 6.0 0.00 0.00 0.00 69 935.9
20260904230500 68 309 6.0 6.0 0.00 0.00 0.00 68 935.6
20260904230400 68 314 4.0 5.0 0.00 0.00 0.00 68 935.8
20260904230300 68 309 4.0 4.0 0.00 0.00 0.00 68 935.7
20260904230200 68 330 2.0 4.0 0.00 0.00 0.00 67 935.6
20260904230100 69 314 3.0 4.0 0.00 0.00 0.00 67 935.4
20260904230004 69 312 2.0 4.0 0.00 0.00 0.00 67 935.5
20260904225900 69 316 2.0 3.0 0.00 0.00 0.00 66 935.4
20260904225800 69 342 2.0 3.0 0.00 0.00 0.00 66 935.6
20260904225700 69 342 2.0 3.0 0.00 0.00 0.00 66 935.6
20260904225600 69 314 2.0 3.0 0.00 0.00 0.00 65 935.2
20260904225500 69 305 1.0 3.0 0.00 0.00 0.00 65 935.3
20260904225400 69 324 2.0 2.0 0.00 0.00 0.00 64 935.5
20260904225300 70 308 1.0 2.0 0.00 0.00 0.00 64 935.5
20260904225201 70 318 1.0 1.0 0.00 0.00 0.00 63 935.4
20260904225100 70 297 1.0 1.0 0.00 0.00 0.00 62 935.4
20260904225000 70 304 0.0 1.0 0.00 0.00 0.00 62 935.3
20260904224900 70 304 1.0 1.0 0.00 0.00 0.00 62 935.1
20260904224800 70 304 0.0 1.0 0.00 0.00 0.00 62 935.1
20260904224700 70 300 0.0 1.0 0.00 0.00 0.00 62 935.0
20260904224600 70 300 0.0 1.0 0.00 0.00 0.00 62 935.0
20260904224500 70 300 0.0 1.0 0.00 0.00 0.00 62 935.1
20260904224400 70 300 0.0 1.0 0.00 0.00 0.00 61 935.0
20260904224301 70 300 0.0 1.0 0.00 0.00 0.00 61 934.9
20260904224200 70 300 0.0 1.0 0.00 0.00 0.00 61 935.0
20260904224100 70 300 0.0 1.0 0.00 0.00 0.00 61 934.9
20260904224001 70 300 0.0 1.0 0.00 0.00 0.00 61 935.2
20260904223901 70 300 0.0 1.0 0.00 0.00 0.00 61 935.0
20260904223800 70 300 0.0 1.0 0.00 0.00 0.00 61 935.0
20260904223701 70 300 0.0 1.0 0.00 0.00 0.00 61 935.1
20260904223600 70 298 1.0 1.0 0.00 0.00 0.00 61 935.1
20260904223500 70 299 1.0 1.0 0.00 0.00 0.00 61 935.0
20260904223400 70 299 1.0 1.0 0.00 0.00 0.00 61 935.0
20260904223301 70 298 0.0 1.0 0.00 0.00 0.00 61 935.0
20260904223201 70 294 0.0 1.0 0.00 0.00 0.00 61 934.9
20260904223100 70 294 0.0 1.0 0.00 0.00 0.00 61 935.0
20260904223001 70 294 0.0 1.0 0.00 0.00 0.00 61 934.6
20260904222900 70 294 0.0 1.0 0.00 0.00 0.00 61 935.1
20260904222800 70 294 0.0 1.0 0.00 0.00 0.00 61 935.0
20260904222700 70 294 0.0 1.0 0.00 0.00 0.00 61 934.8
20260904222600 70 294 0.0 1.0 0.00 0.00 0.00 61 935.2
20260904222500 70 294 0.0 1.0 0.00 0.00 0.00 61 935.0
20260904222401 70 294 1.0 1.0 0.00 0.00 0.00 61 935.0
20260904222300 70 271 0.0 1.0 0.00 0.00 0.00 61 934.8
20260904222200 70 271 0.0 1.0 0.00 0.00 0.00 61 934.8
20260904222100 70 271 0.0 1.0 0.00 0.00 0.00 61 934.8
20260904222001 70 264 0.0 1.0 0.00 0.00 0.00 61 934.8
20260904221900 70 264 0.0 1.0 0.00 0.00 0.00 61 934.8
20260904221800 70 228 1.0 1.0 0.00 0.00 0.00 61 935.0
20260904221700 70 228 1.0 1.0 0.00 0.00 0.00 61 934.7
20260904221600 70 297 0.0 1.0 0.00 0.00 0.00 61 935.0
20260904221500 69 297 0.0 1.0 0.00 0.00 0.00 61 934.9
20260904221401 69 278 0.0 1.0 0.00 0.00 0.00 62 934.9
20260904221300 69 268 0.0 1.0 0.00 0.00 0.00 62 934.7
20260904221200 69 234 0.0 1.0 0.00 0.00 0.00 62 934.8
20260904221100 69 233 0.0 1.0 0.00 0.00 0.00 62 935.0
20260904221001 69 233 0.0 1.0 0.00 0.00 0.00 62 934.8
20260904220901 69 230 0.0 0.0 0.00 0.00 0.00 62 934.7
20260904220801 69 230 0.0 0.0 0.00 0.00 0.00 61 934.8
20260904220701 70 225 0.0 0.0 0.00 0.00 0.00 61 934.5
20260904220601 70 188 0.0 0.0 0.00 0.00 0.00 61 934.7
20260904220501 70 188 0.0 1.0 0.00 0.00 0.00 61 934.9
20260904220400 70 188 0.0 2.0 0.00 0.00 0.00 61 934.8
20260904220301 70 208 0.0 2.0 0.00 0.00 0.00 61 934.8
20260904220200 70 225 0.0 1.0 0.00 0.00 0.00 61 934.8
20260904220100 70 225 0.0 1.0 0.00 0.00 0.00 61 934.7
20260904220001 70 223 1.0 1.0 0.00 0.00 0.00 61 934.7
20260904215900 70 224 0.0 3.0 0.00 0.00 0.00 61 934.5
20260904215800 70 225 2.0 3.0 0.00 0.00 0.00 61 934.7
20260904215700 70 212 1.0 2.0 0.00 0.00 0.00 61 934.6
20260904215600 70 212 1.0 2.0 0.00 0.00 0.00 61 934.6
20260904215500 70 220 1.0 2.0 0.00 0.00 0.00 61 934.6
20260904215400 70 229 1.0 2.0 0.00 0.00 0.00 61 934.8
20260904215300 70 216 1.0 2.0 0.00 0.00 0.00 61 934.9
20260904215200 70 225 1.0 2.0 0.00 0.00 0.00 61 934.8
20260904215100 70 229 1.0 2.0 0.00 0.00 0.00 61 934.8
20260904215000 70 229 0.0 2.0 0.00 0.00 0.00 61 934.5
20260904214900 70 212 1.0 3.0 0.00 0.00 0.00 61 934.7
20260904214800 70 212 2.0 3.0 0.00 0.00 0.00 61 934.5
20260904214700 70 216 1.0 2.0 0.00 0.00 0.00 61 934.8
20260904214600 70 186 1.0 2.0 0.00 0.00 0.00 61 934.7
20260904214500 70 238 0.0 1.0 0.00 0.00 0.00 61 934.5
20260904214400 70 221 0.0 1.0 0.00 0.00 0.00 61 934.7
20260904214300 70 221 1.0 1.0 0.00 0.00 0.00 61 934.7
20260904214201 70 232 0.0 2.0 0.00 0.00 0.00 61 934.7
20260904214100 70 227 1.0 2.0 0.00 0.00 0.00 61 934.6
20260904214000 70 227 1.0 2.0 0.00 0.00 0.00 60 934.6
20260904213900 70 222 0.0 2.0 0.00 0.00 0.00 60 934.6
20260904213800 70 252 1.0 2.0 0.00 0.00 0.00 60 934.8
20260904213700 70 229 1.0 2.0 0.00 0.00 0.00 60 934.6
20260904213601 70 213 1.0 2.0 0.00 0.00 0.00 60 934.8
20260904213500 70 223 1.0 2.0 0.00 0.00 0.00 60 934.8
20260904213400 70 202 1.0 2.0 0.00 0.00 0.00 60 934.5
20260904213300 70 227 1.0 2.0 0.00 0.00 0.00 60 934.6
20260904213200 70 218 1.0 2.0 0.00 0.00 0.00 60 934.8
20260904213100 70 198 2.0 2.0 0.00 0.00 0.00 60 934.6
20260904213000 70 213 2.0 2.0 0.00 0.00 0.00 60 934.5
20260904212900 70 237 2.0 2.0 0.00 0.00 0.00 60 934.7
20260904212801 70 210 2.0 2.0 0.00 0.00 0.00 60 934.7
20260904212700 70 213 2.0 2.0 0.00 0.00 0.00 60 934.4
20260904212600 70 212 1.0 3.0 0.00 0.00 0.00 60 934.5
20260904212500 70 190 1.0 3.0 0.00 0.00 0.00 60 934.4
20260904212400 70 213 2.0 2.0 0.00 0.00 0.00 60 934.8
20260904212300 70 226 1.0 2.0 0.00 0.00 0.00 60 934.6
20260904212200 70 187 1.0 3.0 0.00 0.00 0.00 60 934.7
20260904212100 70 223 2.0 3.0 0.00 0.00 0.00 60 934.9
20260904212000 70 207 2.0 3.0 0.00 0.00 0.00 60 934.6
20260904211900 70 199 2.0 3.0 0.00 0.00 0.00 60 934.7
20260904211800 70 204 1.0 3.0 0.00 0.00 0.00 60 934.7
20260904211700 70 199 2.0 3.0 0.00 0.00 0.00 60 934.6
20260904211600 70 212 2.0 3.0 0.00 0.00 0.00 60 934.7
20260904211500 70 218 2.0 3.0 0.00 0.00 0.00 60 934.5
20260904211400 70 211 2.0 3.0 0.00 0.00 0.00 59 934.7
20260904211301 70 204 2.0 3.0 0.00 0.00 0.00 59 934.7
20260904211200 70 215 2.0 3.0 0.00 0.00 0.00 59 934.7
20260904211100 70 206 2.0 3.0 0.00 0.00 0.00 59 934.7
20260904211001 70 204 1.0 3.0 0.00 0.00 0.00 59 934.6
20260904210900 70 208 2.0 3.0 0.00 0.00 0.00 60 934.6
20260904210800 70 206 2.0 2.0 0.00 0.00 0.00 60 934.7
20260904210700 70 215 1.0 2.0 0.00 0.00 0.00 60 934.7
20260904210600 70 212 1.0 3.0 0.00 0.00 0.00 60 934.5
20260904210501 70 224 2.0 3.0 0.00 0.00 0.00 59 934.7
20260904210400 70 210 2.0 3.0 0.00 0.00 0.00 60 934.6
20260904210301 70 228 2.0 3.0 0.00 0.00 0.00 60 934.4
20260904210200 70 190 2.0 2.0 0.00 0.00 0.00 60 934.7
20260904210101 70 206 2.0 2.0 0.00 0.00 0.00 60 934.5
20260904210000 70 198 1.0 2.0 0.00 0.00 0.00 60 934.7
20260904205900 70 211 2.0 3.0 0.00 0.00 0.00 60 934.6
20260904205800 70 194 2.0 3.0 0.00 0.00 0.00 60 934.6
20260904205700 70 209 2.0 3.0 0.00 0.00 0.00 60 934.7
20260904205600 70 200 1.0 2.0 0.00 0.00 0.00 60 934.6
20260904205501 70 200 1.0 2.0 0.00 0.00 0.00 60 934.6
20260904205401 70 198 1.0 2.0 0.00 0.00 0.00 60 934.8
20260904205300 70 208 2.0 2.0 0.00 0.00 0.00 60 934.6
20260904205200 70 203 2.0 3.0 0.00 0.00 0.00 59 934.7
20260904205100 70 190 3.0 3.0 0.00 0.00 0.00 59 934.5
20260904205000 70 188 1.0 4.0 0.00 0.00 0.00 59 934.9
20260904204900 70 215 2.0 4.0 0.00 0.00 0.00 59 934.6
20260904204800 70 192 2.0 3.0 0.00 0.00 0.00 59 934.4
20260904204700 70 207 2.0 2.0 0.00 0.00 0.00 59 934.5
20260904204600 70 205 2.0 3.0 0.00 0.00 0.00 59 934.9
20260904204500 71 221 2.0 3.0 0.00 0.00 0.00 59 934.7
20260904204400 71 195 2.0 3.0 0.00 0.00 0.00 59 934.6
20260904204301 71 201 2.0 3.0 0.00 0.00 0.00 59 934.9
20260904204200 71 187 2.0 3.0 0.00 0.00 0.00 59 934.7
20260904204100 71 207 2.0 3.0 0.00 0.00 0.00 58 934.6
20260904204000 71 179 2.0 3.0 0.00 0.00 0.00 58 934.9
20260904203901 71 218 2.0 3.0 0.00 0.00 0.00 58 934.7
20260904203801 71 210 2.0 2.0 0.00 0.00 0.00 58 934.7
20260904203700 71 216 1.0 2.0 0.00 0.00 0.00 58 934.8
20260904203600 71 216 2.0 3.0 0.00 0.00 0.00 58 934.9
20260904203500 71 204 2.0 3.0 0.00 0.00 0.00 58 935.0
20260904203400 71 210 2.0 3.0 0.00 0.00 0.00 58 934.6
20260904203300 71 207 1.0 2.0 0.00 0.00 0.00 58 934.8
20260904203201 71 204 2.0 2.0 0.00 0.00 0.00 58 934.8
20260904203100 71 217 2.0 2.0 0.00 0.00 0.00 58 934.8
20260904203001 71 213 1.0 3.0 0.00 0.00 0.00 58 934.9
20260904202900 71 214 2.0 3.0 0.00 0.00 0.00 58 935.1
20260904202800 71 208 2.0 3.0 0.00 0.00 0.00 58 934.9
20260904202700 71 222 1.0 3.0 0.00 0.00 0.00 58 935.1
20260904202600 71 214 1.0 3.0 0.00 0.00 0.00 58 934.9
20260904202500 71 211 2.0 2.0 0.00 0.00 0.00 58 934.9
20260904202401 71 216 2.0 2.0 0.00 0.00 0.00 58 934.8
20260904202300 71 211 2.0 3.0 0.00 0.00 0.00 58 934.8
20260904202200 71 209 2.0 3.0 0.00 0.00 0.00 58 934.8
20260904202100 71 215 2.0 3.0 0.00 0.00 0.00 58 934.9
20260904202001 71 202 2.0 3.0 0.00 0.00 0.00 58 935.1
20260904201900 71 213 1.0 2.0 0.00 0.00 0.00 58 935.0
20260904201800 71 208 2.0 3.0 0.00 0.00 0.00 58 935.0
20260904201700 71 212 2.0 3.0 0.00 0.00 0.00 58 934.9
20260904201600 71 213 2.0 3.0 0.00 0.00 0.00 58 934.8
20260904201500 71 209 2.0 2.0 0.00 0.00 0.00 58 934.9
20260904201400 71 199 1.0 2.0 0.00 0.00 0.00 58 935.0
20260904201301 71 199 1.0 3.0 0.00 0.00 0.00 58 934.8
20260904201200 71 222 1.0 3.0 0.00 0.00 0.00 57 934.9
20260904201100 71 211 2.0 3.0 0.00 0.00 0.00 58 934.9
20260904201000 71 219 2.0 3.0 0.00 0.00 0.00 58 935.1
20260904200901 71 195 2.0 2.0 0.00 0.00 0.00 58 934.8
20260904200800 71 209 2.0 2.0 0.00 0.00 0.00 58 934.9
20260904200701 71 222 2.0 2.0 0.00 0.00 0.00 58 934.9
20260904200600 71 203 2.0 2.0 0.00 0.00 0.00 58 934.9
20260904200500 71 215 2.0 2.0 0.00 0.00 0.00 58 934.9
20260904200401 71 215 2.0 2.0 0.00 0.00 0.00 58 935.1
20260904200300 71 209 1.0 2.0 0.00 0.00 0.00 58 934.9
20260904200200 71 203 1.0 3.0 0.00 0.00 0.00 58 934.9
20260904200101 71 210 2.0 3.0 0.00 0.00 0.00 58 934.9
20260904200000 71 212 2.0 3.0 0.00 0.00 0.00 58 935.0
20260904195901 71 210 2.0 3.0 0.00 0.00 0.00 58 935.1
20260904195801 71 187 1.0 2.0 0.00 0.00 0.00 58 935.0
20260904195700 72 192 1.0 3.0 0.00 0.00 0.00 58 935.1
20260904195600 72 205 2.0 3.0 0.00 0.00 0.00 58 935.1
20260904195500 72 214 1.0 2.0 0.00 0.00 0.00 57 935.1
20260904195400 72 214 1.0 2.0 0.00 0.00 0.00 57 935.1
20260904195306 72 216 2.0 2.0 0.00 0.00 0.00 57 935.2
20260904195200 72 201 1.0 3.0 0.00 0.00 0.00 57 934.9
20260904195100 72 216 2.0 3.0 0.00 0.00 0.00 57 935.1
20260904195000 71 215 2.0 2.0 0.00 0.00 0.00 57 935.0
20260904194901 71 205 2.0 3.0 0.00 0.00 0.00 58 935.1
20260904194800 71 210 2.0 3.0 0.00 0.00 0.00 58 935.1
20260904194701 71 207 2.0 3.0 0.00 0.00 0.00 58 935.2
20260904194600 71 217 2.0 3.0 0.00 0.00 0.00 58 935.0
20260904194500 71 204 2.0 3.0 0.00 0.00 0.00 58 935.1
20260904194401 72 202 2.0 2.0 0.00 0.00 0.00 58 935.1
20260904194300 72 210 1.0 3.0 0.00 0.00 0.00 58 935.1
20260904194201 72 202 2.0 3.0 0.00 0.00 0.00 58 935.1
20260904194100 72 213 1.0 3.0 0.00 0.00 0.00 57 935.0
20260904194000 72 214 2.0 3.0 0.00 0.00 0.00 57 935.0
20260904193900 72 206 1.0 2.0 0.00 0.00 0.00 57 935.1
20260904193800 72 207 2.0 3.0 0.00 0.00 0.00 57 935.0
20260904193700 71 202 2.0 3.0 0.00 0.00 0.00 58 934.8
20260904193600 71 199 2.0 3.0 0.00 0.00 0.00 58 934.9
20260904193500 71 215 1.0 2.0 0.00 0.00 0.00 58 935.0
20260904193400 72 212 2.0 2.0 0.00 0.00 0.00 58 934.9
20260904193300 72 208 2.0 2.0 0.00 0.00 0.00 58 935.0
20260904193201 72 216 2.0 3.0 0.00 0.00 0.00 58 935.0
20260904193100 72 167 2.0 2.0 0.00 0.00 0.00 58 934.9
20260904193000 72 213 2.0 2.0 0.00 0.00 0.00 58 934.9
20260904192900 72 194 1.0 3.0 0.00 0.00 0.00 58 935.0
20260904192801 72 218 2.0 3.0 0.00 0.00 0.00 58 935.1
20260904192701 72 203 1.0 2.0 0.00 0.00 0.00 58 935.1
20260904192600 72 208 2.0 2.0 0.00 0.00 0.00 58 935.0
20260904192500 72 204 2.0 3.0 0.00 0.00 0.00 58 935.1
20260904192400 72 196 2.0 3.0 0.00 0.00 0.00 58 935.0
20260904192300 72 210 2.0 2.0 0.00 0.00 0.00 58 935.2
20260904192200 72 209 2.0 3.0 0.00 0.00 0.00 58 934.9
20260904192100 72 209 2.0 2.0 0.00 0.00 0.00 58 935.0
20260904192000 72 186 2.0 3.0 0.00 0.00 0.00 57 935.0
20260904191900 72 194 2.0 3.0 0.00 0.00 0.00 58 934.8
20260904191800 72 210 2.0 3.0 0.00 0.00 0.00 58 935.1
20260904191700 71 204 2.0 3.0 0.00 0.00 0.00 58 935.1
20260904191600 71 189 2.0 3.0 0.00 0.00 0.00 58 935.1
20260904191500 71 205 2.0 3.0 0.00 0.00 0.00 59 935.0